FW4143 Weather Reports


time (UTC)temp
F
wind
direction
speed
knots
gust
knots
rain 1hr
in
rain 24hr
in
rain mn
in
humidity
%
barometer
mb
20260903202903 96 257 4.3 9.6 0.00 0.00 0.00 37 1011.7
20260903202803 96 256 5.2 11.3 0.00 0.00 0.00 37 1011.8
20260903202703 96 255 5.2 11.3 0.00 0.00 0.00 37 1011.8
20260903202603 96 255 4.3 11.3 0.00 0.00 0.00 36 1011.8
20260903202524 96 257 4.3 11.3 0.00 0.00 0.00 37 1011.8
20260903202403 96 259 4.3 11.3 0.00 0.00 0.00 36 1011.8
20260903202306 96 261 4.3 11.3 0.00 0.00 0.00 36 1011.9
20260903202203 96 258 5.2 11.3 0.00 0.00 0.00 36 1011.8
20260903202124 96 258 5.2 11.3 0.00 0.00 0.00 36 1011.9
20260903202003 96 255 4.3 11.3 0.00 0.00 0.00 36 1011.8
20260903201903 96 256 4.3 11.3 0.00 0.00 0.00 36 1011.8
20260903201803 96 256 4.3 8.7 0.00 0.00 0.00 36 1011.9
20260903201703 96 257 4.3 8.7 0.00 0.00 0.00 36 1011.9
20260903201603 96 258 4.3 8.7 0.00 0.00 0.00 37 1011.9
20260903201503 95 260 4.3 8.7 0.00 0.00 0.00 37 1011.9
20260903201403 95 262 4.3 8.7 0.00 0.00 0.00 37 1011.9
20260903201303 95 263 4.3 8.7 0.00 0.00 0.00 37 1011.9
20260903201203 95 268 4.3 8.7 0.00 0.00 0.00 37 1012.0
20260903201103 95 271 3.5 8.7 0.00 0.00 0.00 37 1012.0
20260903201003 95 274 3.5 8.7 0.00 0.00 0.00 37 1012.0
20260903200903 95 276 3.5 8.7 0.00 0.00 0.00 37 1012.0
20260903200803 95 279 3.5 8.7 0.00 0.00 0.00 37 1012.0
20260903200724 95 280 3.5 8.7 0.00 0.00 0.00 37 1012.0
20260903200603 95 283 3.5 8.7 0.00 0.00 0.00 37 1012.0
20260903200503 95 281 3.5 8.7 0.00 0.00 0.00 37 1011.9
20260903200403 95 277 3.5 8.7 0.00 0.00 0.00 37 1011.9
20260903200303 95 276 3.5 8.7 0.00 0.00 0.00 37 1011.9
20260903200203 95 274 3.5 8.7 0.00 0.00 0.00 37 1011.9
20260903200103 95 275 4.3 8.7 0.00 0.00 0.00 37 1011.9
20260903200003 95 275 4.3 8.7 0.00 0.00 0.00 37 1011.9
20260903195903 95 274 4.3 8.7 0.00 0.00 0.00 37 1011.9
20260903195803 95 271 4.3 8.7 0.00 0.00 0.00 37 1012.0
20260903195703 95 268 3.5 8.7 0.00 0.00 0.00 37 1012.0
20260903195624 95 266 3.5 8.7 0.00 0.00 0.00 36 1011.9
20260903195503 96 264 3.5 7.8 0.00 0.00 0.00 36 1011.9
20260903195403 96 268 3.5 7.8 0.00 0.00 0.00 36 1011.9
20260903195306 96 270 2.6 7.8 0.00 0.00 0.00 36 1011.9
20260903195203 96 269 2.6 7.0 0.00 0.00 0.00 36 1011.9
20260903195103 96 264 2.6 7.0 0.00 0.00 0.00 36 1011.9
20260903195003 96 261 2.6 7.0 0.00 0.00 0.00 36 1011.9
20260903194903 96 260 2.6 7.0 0.00 0.00 0.00 36 1011.9
20260903194803 96 261 2.6 7.0 0.00 0.00 0.00 36 1012.0
20260903194703 96 262 2.6 7.0 0.00 0.00 0.00 36 1012.0
20260903194624 96 262 2.6 7.0 0.00 0.00 0.00 36 1011.9
20260903194503 95 258 2.6 7.0 0.00 0.00 0.00 36 1012.0
20260903194424 95 256 2.6 7.0 0.00 0.00 0.00 36 1012.0
20260903194324 95 251 2.6 7.0 0.00 0.00 0.00 36 1012.0
20260903194224 95 250 2.6 7.0 0.00 0.00 0.00 36 1011.9
20260903194103 95 248 2.6 5.2 0.00 0.00 0.00 36 1012.0
20260903194024 95 248 2.6 5.2 0.00 0.00 0.00 36 1012.0
20260903193924 95 247 2.6 5.2 0.00 0.00 0.00 36 1012.0
20260903193803 95 247 2.6 5.2 0.00 0.00 0.00 36 1012.0
20260903193724 95 247 2.6 5.2 0.00 0.00 0.00 36 1012.0
20260903193603 95 252 2.6 5.2 0.00 0.00 0.00 36 1012.0
20260903193503 95 255 3.5 7.8 0.00 0.00 0.00 36 1012.1
20260903193403 95 257 3.5 7.8 0.00 0.00 0.00 36 1012.0
20260903193303 95 259 3.5 9.6 0.00 0.00 0.00 36 1012.0
20260903193203 96 262 3.5 9.6 0.00 0.00 0.00 36 1012.1
20260903193103 96 265 3.5 9.6 0.00 0.00 0.00 36 1012.1
20260903193024 96 268 3.5 9.6 0.00 0.00 0.00 36 1012.1
20260903192903 96 272 3.5 9.6 0.00 0.00 0.00 36 1012.1
20260903192803 96 283 4.3 9.6 0.00 0.00 0.00 36 1012.1
20260903192724 96 295 4.3 9.6 0.00 0.00 0.00 36 1012.1
20260903192624 96 316 3.5 9.6 0.00 0.00 0.00 36 1012.1
20260903192503 96 344 3.5 9.6 0.00 0.00 0.00 36 1012.1
20260903192403 97 347 3.5 9.6 0.00 0.00 0.00 36 1012.2
20260903192306 97 3 2.6 9.6 0.00 0.00 0.00 35 1012.1
20260903192203 97 5 2.6 7.0 0.00 0.00 0.00 35 1012.2
20260903192103 97 2 2.6 10.4 0.00 0.00 0.00 35 1012.2
20260903192003 97 351 3.5 10.4 0.00 0.00 0.00 35 1012.2
20260903191903 98 337 3.5 10.4 0.00 0.00 0.00 34 1012.2
20260903191803 98 317 2.6 10.4 0.00 0.00 0.00 34 1012.3
20260903191703 98 298 2.6 10.4 0.00 0.00 0.00 34 1012.3
20260903191624 98 284 2.6 10.4 0.00 0.00 0.00 34 1012.3
20260903191503 97 270 2.6 10.4 0.00 0.00 0.00 34 1012.3
20260903191403 97 262 2.6 10.4 0.00 0.00 0.00 34 1012.3
20260903191303 97 264 2.6 10.4 0.00 0.00 0.00 34 1012.3
20260903191203 97 262 2.6 10.4 0.00 0.00 0.00 34 1012.4
20260903191124 97 247 2.6 5.2 0.00 0.00 0.00 34 1012.3
20260903191003 96 285 2.6 5.2 0.00 0.00 0.00 35 1012.4
20260903190903 96 332 2.6 5.2 0.00 0.00 0.00 35 1012.4
20260903190803 96 1 2.6 5.2 0.00 0.00 0.00 35 1012.4
20260903190703 96 356 2.6 7.0 0.00 0.00 0.00 34 1012.4
20260903190603 97 353 2.6 7.0 0.00 0.00 0.00 34 1012.5
20260903190524 97 356 2.6 7.0 0.00 0.00 0.00 34 1012.5
20260903190403 97 359 2.6 7.0 0.00 0.00 0.00 34 1012.5
20260903190324 97 349 2.6 7.0 0.00 0.00 0.00 34 1012.5
20260903190203 97 336 2.6 7.0 0.00 0.00 0.00 34 1012.6
20260903190003 96 311 2.6 7.0 0.00 0.00 0.00 34 1012.6
20260903185924 96 304 2.6 7.0 0.00 0.00 0.00 34 1012.7
20260903185803 96 293 2.6 7.0 0.00 0.00 0.00 33 1012.7
20260903185703 96 284 2.6 7.0 0.00 0.00 0.00 34 1012.7
20260903185603 96 278 2.6 7.0 0.00 0.00 0.00 34 1012.6
20260903185503 96 278 2.6 7.0 0.00 0.00 0.00 34 1012.7
20260903185403 96 282 2.6 7.0 0.00 0.00 0.00 34 1012.8
20260903185306 96 284 2.6 8.7 0.00 0.00 0.00 34 1012.7
20260903185203 95 287 3.5 8.7 0.00 0.00 0.00 34 1012.7
20260903185103 95 287 3.5 8.7 0.00 0.00 0.00 34 1012.8
20260903185003 95 288 2.6 8.7 0.00 0.00 0.00 34 1012.8
20260903184903 95 289 2.6 8.7 0.00 0.00 0.00 34 1012.8
20260903184803 95 287 3.5 8.7 0.00 0.00 0.00 34 1012.8
20260903184703 95 288 2.6 8.7 0.00 0.00 0.00 34 1012.9
20260903184603 95 291 2.6 8.7 0.00 0.00 0.00 34 1012.9
20260903184503 95 288 2.6 8.7 0.00 0.00 0.00 33 1012.9
20260903184403 95 280 2.6 8.7 0.00 0.00 0.00 33 1012.9
20260903184303 95 277 2.6 8.7 0.00 0.00 0.00 33 1012.9
20260903184203 95 279 2.6 9.6 0.00 0.00 0.00 33 1012.9
20260903184103 95 278 3.5 10.4 0.00 0.00 0.00 33 1013.0
20260903184024 95 281 3.5 10.4 0.00 0.00 0.00 33 1012.9
20260903183903 95 287 3.5 10.4 0.00 0.00 0.00 33 1013.0
20260903183824 95 288 3.5 10.4 0.00 0.00 0.00 33 1013.0
20260903183703 95 293 3.5 10.4 0.00 0.00 0.00 33 1013.1
20260903183603 95 296 3.5 10.4 0.00 0.00 0.00 33 1013.1
20260903183503 95 302 3.5 10.4 0.00 0.00 0.00 33 1013.1
20260903183403 95 310 3.5 10.4 0.00 0.00 0.00 33 1013.1
20260903183303 95 316 2.6 10.4 0.00 0.00 0.00 33 1013.1
20260903183203 95 315 2.6 10.4 0.00 0.00 0.00 33 1013.1
20260903183103 95 327 2.6 6.1 0.00 0.00 0.00 33 1013.1
20260903183003 95 325 2.6 6.1 0.00 0.00 0.00 32 1013.2
20260903182903 95 321 2.6 6.1 0.00 0.00 0.00 33 1013.1
20260903182824 95 325 2.6 6.1 0.00 0.00 0.00 32 1013.2
20260903182704 95 343 2.6 6.1 0.00 0.00 0.00 32 1013.2
20260903182603 95 352 2.6 6.1 0.00 0.00 0.00 32 1013.3
20260903182503 95 3 3.5 6.1 0.00 0.00 0.00 33 1013.3
20260903182403 94 10 3.5 6.1 0.00 0.00 0.00 32 1013.3
20260903182306 94 9 2.6 6.1 0.00 0.00 0.00 32 1013.3
20260903182203 94 18 2.6 6.1 0.00 0.00 0.00 32 1013.3
20260903182103 94 20 2.6 6.1 0.00 0.00 0.00 32 1013.3
20260903182003 94 16 2.6 6.1 0.00 0.00 0.00 32 1013.4
20260903181903 94 21 2.6 6.1 0.00 0.00 0.00 32 1013.3
20260903181803 94 2 2.6 6.1 0.00 0.00 0.00 32 1013.3
20260903181703 94 318 1.7 6.1 0.00 0.00 0.00 32 1013.4
20260903181603 94 311 1.7 5.2 0.00 0.00 0.00 32 1013.4
20260903181524 94 316 1.7 5.2 0.00 0.00 0.00 32 1013.4
20260903181403 94 296 1.7 7.8 0.00 0.00 0.00 32 1013.4
20260903181303 94 302 1.7 7.8 0.00 0.00 0.00 32 1013.4
20260903181203 94 302 2.6 7.8 0.00 0.00 0.00 32 1013.5
20260903181103 94 312 2.6 7.8 0.00 0.00 0.00 32 1013.5
20260903181003 94 320 2.6 7.8 0.00 0.00 0.00 32 1013.5
20260903180903 94 324 2.6 7.8 0.00 0.00 0.00 32 1013.5
20260903180803 94 326 2.6 7.8 0.00 0.00 0.00 31 1013.5
20260903180724 94 326 2.6 7.8 0.00 0.00 0.00 31 1013.5
20260903180603 94 318 2.6 7.8 0.00 0.00 0.00 31 1013.5
20260903180504 94 315 2.6 7.8 0.00 0.00 0.00 31 1013.5
20260903180403 94 314 3.5 6.1 0.00 0.00 0.00 31 1013.6
20260903180303 94 326 3.5 6.1 0.00 0.00 0.00 31 1013.6
20260903180203 94 340 3.5 6.1 0.00 0.00 0.00 31 1013.6
20260903180003 94 352 3.5 6.1 0.00 0.00 0.00 31 1013.6
20260903175903 94 358 3.5 6.1 0.00 0.00 0.00 31 1013.6
20260903175803 94 8 3.5 6.1 0.00 0.00 0.00 31 1013.7
20260903175703 94 15 3.5 6.1 0.00 0.00 0.00 31 1013.7
20260903175603 94 22 3.5 6.1 0.00 0.00 0.00 31 1013.7
20260903175524 94 23 3.5 6.1 0.00 0.00 0.00 31 1013.7
20260903175403 94 32 3.5 6.1 0.00 0.00 0.00 31 1013.7
20260903175306 94 33 2.6 6.1 0.00 0.00 0.00 30 1013.8
20260903175203 94 33 2.6 6.1 0.00 0.00 0.00 30 1013.8
20260903175103 94 27 2.6 6.1 0.00 0.00 0.00 30 1013.8
20260903175003 94 27 2.6 6.1 0.00 0.00 0.00 30 1013.9
20260903174903 94 28 2.6 6.1 0.00 0.00 0.00 30 1013.9
20260903174803 94 29 2.6 6.1 0.00 0.00 0.00 29 1013.9
20260903174703 95 31 2.6 5.2 0.00 0.00 0.00 29 1013.9
20260903174603 94 33 2.6 6.1 0.00 0.00 0.00 29 1014.0
20260903174524 94 37 3.5 7.8 0.00 0.00 0.00 29 1014.0
20260903174424 94 35 3.5 7.8 0.00 0.00 0.00 29 1014.0
20260903174324 94 28 3.5 7.8 0.00 0.00 0.00 29 1014.0
20260903174203 94 21 3.5 7.8 0.00 0.00 0.00 29 1014.0
20260903174103 94 21 3.5 7.8 0.00 0.00 0.00 29 1014.0
20260903174003 94 8 3.5 7.8 0.00 0.00 0.00 28 1014.0
20260903173903 94 4 3.5 7.8 0.00 0.00 0.00 29 1014.0
20260903173803 94 358 3.5 7.8 0.00 0.00 0.00 28 1014.0
20260903173724 94 350 4.3 7.8 0.00 0.00 0.00 28 1014.0
20260903173624 94 340 4.3 8.7 0.00 0.00 0.00 28 1014.0
20260903173503 94 327 3.5 8.7 0.00 0.00 0.00 27 1014.0
20260903173403 94 328 3.5 8.7 0.00 0.00 0.00 27 1014.1
20260903173303 94 337 3.5 8.7 0.00 0.00 0.00 27 1014.0
20260903173203 93 345 3.5 8.7 0.00 0.00 0.00 27 1014.0
20260903173124 93 350 3.5 8.7 0.00 0.00 0.00 27 1014.0
20260903173003 93 6 3.5 8.7 0.00 0.00 0.00 27 1014.1
20260903172903 93 14 3.5 8.7 0.00 0.00 0.00 27 1014.1
20260903172824 93 20 4.3 8.7 0.00 0.00 0.00 27 1014.0
20260903172703 93 29 4.3 9.6 0.00 0.00 0.00 27 1014.1
20260903172603 93 38 3.5 9.6 0.00 0.00 0.00 26 1014.1
20260903172503 93 41 4.3 9.6 0.00 0.00 0.00 26 1014.0
20260903172424 93 42 4.3 9.6 0.00 0.00 0.00 26 1014.0
20260903172306 93 45 4.3 9.6 0.00 0.00 0.00 26 1014.0
20260903172203 92 43 4.3 9.6 0.00 0.00 0.00 26 1014.0
20260903172124 92 44 4.3 9.6 0.00 0.00 0.00 26 1014.0
20260903172003 92 42 4.3 9.6 0.00 0.00 0.00 25 1014.0
20260903171924 92 41 4.3 9.6 0.00 0.00 0.00 25 1014.0
20260903171803 92 38 4.3 9.6 0.00 0.00 0.00 25 1014.0
20260903171703 92 37 3.5 9.6 0.00 0.00 0.00 25 1014.0
20260903171603 92 36 3.5 9.6 0.00 0.00 0.00 25 1014.0
20260903171524 92 36 3.5 9.6 0.00 0.00 0.00 24 1014.0
20260903171403 92 36 3.5 9.6 0.00 0.00 0.00 24 1014.0
20260903171303 92 41 3.5 9.6 0.00 0.00 0.00 24 1014.0
20260903171203 92 46 3.5 9.6 0.00 0.00 0.00 24 1014.0
20260903171103 92 48 3.5 8.7 0.00 0.00 0.00 23 1014.0
20260903171024 92 48 4.3 10.4 0.00 0.00 0.00 23 1014.0
20260903170903 91 51 4.3 11.3 0.00 0.00 0.00 23 1014.0
20260903170803 91 47 4.3 11.3 0.00 0.00 0.00 23 1014.0
20260903170703 91 50 4.3 11.3 0.00 0.00 0.00 23 1014.0
20260903170603 91 49 5.2 11.3 0.00 0.00 0.00 23 1014.0
20260903170503 91 48 5.2 11.3 0.00 0.00 0.00 23 1014.0
20260903170424 91 47 5.2 11.3 0.00 0.00 0.00 23 1014.0
20260903170303 91 44 5.2 11.3 0.00 0.00 0.00 23 1014.0
20260903170203 91 42 5.2 11.3 0.00 0.00 0.00 23 1014.0
20260903170103 92 39 5.2 11.3 0.00 0.00 0.00 23 1014.0
20260903170003 92 39 5.2 10.4 0.00 0.00 0.00 22 1014.0
20260903165903 91 37 5.2 10.4 0.00 0.00 0.00 22 1014.0
20260903165803 91 41 5.2 10.4 0.00 0.00 0.00 21 1014.0
20260903165703 91 38 5.2 10.4 0.00 0.00 0.00 21 1014.0
20260903165603 91 38 6.1 10.4 0.00 0.00 0.00 21 1014.0
20260903165503 91 38 6.1 12.2 0.00 0.00 0.00 21 1014.0
20260903165403 91 36 6.1 12.2 0.00 0.00 0.00 20 1014.0
20260903165305 91 35 7.0 12.2 0.00 0.00 0.00 21 1014.0
20260903165203 91 34 7.0 12.2 0.00 0.00 0.00 21 1014.0
20260903165103 91 33 7.0 12.2 0.00 0.00 0.00 21 1013.9
20260903165003 91 32 7.0 12.2 0.00 0.00 0.00 21 1014.0
20260903164924 91 30 7.0 12.2 0.00 0.00 0.00 21 1014.0
20260903164803 91 30 6.1 12.2 0.00 0.00 0.00 20 1013.9
20260903164703 91 30 6.1 12.2 0.00 0.00 0.00 21 1013.9
20260903164624 91 27 6.1 12.2 0.00 0.00 0.00 21 1014.0
20260903164503 91 28 6.1 12.2 0.00 0.00 0.00 20 1014.0
20260903164403 91 31 6.1 12.2 0.00 0.00 0.00 20 1013.9
20260903164303 91 33 5.2 11.3 0.00 0.00 0.00 19 1013.9
20260903164203 91 33 5.2 10.4 0.00 0.00 0.00 19 1013.9
20260903164103 91 35 5.2 10.4 0.00 0.00 0.00 18 1013.9
20260903164003 91 35 5.2 10.4 0.00 0.00 0.00 18 1014.0
20260903163903 91 37 5.2 10.4 0.00 0.00 0.00 17 1014.0
20260903163803 91 34 5.2 10.4 0.00 0.00 0.00 17 1014.0
20260903163703 91 36 5.2 10.4 0.00 0.00 0.00 16 1014.0
20260903163603 91 40 5.2 10.4 0.00 0.00 0.00 16 1014.0
20260903163503 91 40 5.2 13.0 0.00 0.00 0.00 15 1014.1
20260903163403 91 40 5.2 13.0 0.00 0.00 0.00 15 1014.1
20260903163303 91 40 5.2 13.0 0.00 0.00 0.00 14 1014.1
20260903163203 91 41 5.2 13.0 0.00 0.00 0.00 15 1014.1
20260903163124 91 39 5.2 13.0 0.00 0.00 0.00 14 1014.1
20260903163003 90 39 5.2 13.0 0.00 0.00 0.00 14 1014.1
20260903162905 90 43 6.1 13.0 0.00 0.00 0.00 14 1014.1
20260903162803 90 43 6.1 13.0 0.00 0.00 0.00 14 1014.1
20260903162703 90 43 7.0 13.0 0.00 0.00 0.00 14 1014.1
20260903162603 90 41 7.0 13.0 0.00 0.00 0.00 13 1014.1
20260903162503 90 41 7.0 12.2 0.00 0.00 0.00 12 1014.1
20260903162424 90 40 7.0 12.2 0.00 0.00 0.00 12 1014.1
20260903162306 90 37 7.0 12.2 0.00 0.00 0.00 12 1014.1
20260903162203 90 37 7.0 12.2 0.00 0.00 0.00 12 1014.0
20260903162103 90 37 7.0 12.2 0.00 0.00 0.00 13 1014.0
20260903162003 90 37 7.0 12.2 0.00 0.00 0.00 13 1014.0
20260903161903 90 36 7.0 12.2 0.00 0.00 0.00 13 1014.0
20260903161824 90 37 7.0 12.2 0.00 0.00 0.00 13 1014.1
20260903161703 90 37 7.0 12.2 0.00 0.00 0.00 13 1014.0
20260903161603 90 37 6.1 12.2 0.00 0.00 0.00 12 1014.0
20260903161503 90 35 6.1 12.2 0.00 0.00 0.00 10 1014.1
20260903161403 90 37 6.1 12.2 0.00 0.00 0.00 10 1014.0
20260903161324 90 38 6.1 12.2 0.00 0.00 0.00 10 1014.0
20260903161203 90 40 7.0 12.2 0.00 0.00 0.00 10 1014.0
20260903161103 90 41 6.1 12.2 0.00 0.00 0.00 10 1013.9
20260903161003 90 42 7.0 12.2 0.00 0.00 0.00 9 1014.0
20260903160903 90 45 7.0 12.2 0.00 0.00 0.00 8 1014.0
20260903160803 90 45 6.1 12.2 0.00 0.00 0.00 8 1013.9
20260903160703 90 47 7.0 12.2 0.00 0.00 0.00 8 1013.9
20260903160603 89 47 7.0 12.2 0.00 0.00 0.00 8 1013.9
20260903160524 89 48 7.0 12.2 0.00 0.00 0.00 6 1013.9
20260903160403 89 49 7.0 11.3 0.00 0.00 0.00 7 1013.9
20260903160303 89 47 6.1 15.6 0.00 0.00 0.00 7 1013.9
20260903160203 89 49 6.1 15.6 0.00 0.00 0.00 7 1014.0
20260903160003 89 47 7.0 15.6 0.00 0.00 0.00 8 1013.9
20260903155903 89 45 7.0 15.6 0.00 0.00 0.00 7 1013.9
20260903155803 89 42 7.8 18.2 0.00 0.00 0.00 6 1014.0
20260903155703 89 39 7.8 18.2 0.00 0.00 0.00 5 1014.0
20260903155603 89 39 7.8 18.2 0.00 0.00 0.00 4 1013.9
20260903155503 89 37 7.8 18.2 0.00 0.00 0.00 5 1013.9
20260903155403 89 35 7.8 18.2 0.00 0.00 0.00 5 1013.9
20260903155306 89 35 7.8 18.2 0.00 0.00 0.00 5 1013.9
20260903155203 89 33 7.8 18.2 0.00 0.00 0.00 5 1013.9
20260903155103 89 33 7.8 18.2 0.00 0.00 0.00 6 1013.9
20260903155024 89 31 7.8 18.2 0.00 0.00 0.00 5 1013.9
20260903154903 89 30 7.8 18.2 0.00 0.00 0.00 4 1013.8
20260903154824 89 33 7.0 16.5 0.00 0.00 0.00 2 1013.8
20260903154724 89 34 7.0 15.6 0.00 0.00 0.00 1 1013.8
20260903154603 89 33 7.0 15.6 0.00 0.00 0.00 1 1013.8
20260903154503 89 35 7.0 15.6 0.00 0.00 0.00 1 1013.9
20260903154403 89 37 7.0 15.6 0.00 0.00 0.00 1 1013.9
20260903154303 89 38 7.0 13.9 0.00 0.00 0.00 1 1013.9
20260903154224 88 38 7.0 13.9 0.00 0.00 0.00 1 1013.8
20260903154103 88 38 7.0 13.9 0.00 0.00 0.00 1 1013.8
20260903154003 88 37 7.0 13.0 0.00 0.00 0.00 1 1013.8
20260903153924 88 37 7.0 13.0 0.00 0.00 0.00 1 1013.8
20260903153803 88 37 7.0 13.0 0.00 0.00 0.00 1 1013.9
20260903153703 88 38 7.0 13.9 0.00 0.00 0.00 1 1013.8
20260903153603 88 39 7.0 13.9 0.00 0.00 0.00 1 1013.9
20260903153503 88 38 7.0 13.9 0.00 0.00 0.00 1 1013.9
20260903153403 87 38 7.8 13.9 0.00 0.00 0.00 1 1013.9
20260903153303 87 39 7.8 13.9 0.00 0.00 0.00 1 1013.9
20260903153224 87 39 7.8 13.9 0.00 0.00 0.00 1 1014.0
20260903153103 87 40 7.8 16.5 0.00 0.00 0.00 1 1014.0
20260903153003 87 42 7.8 16.5 0.00 0.00 0.00 1 1014.0
20260903152903 87 41 8.7 16.5 0.00 0.00 0.00 1 1014.0
20260903152803 87 41 7.8 16.5 0.00 0.00 0.00 1 1014.0
20260903152703 87 40 7.8 16.5 0.00 0.00 0.00 1 1014.0
20260903152603 87 40 7.8 16.5 0.00 0.00 0.00 1 1014.0
20260903152503 87 39 7.0 16.5 0.00 0.00 0.00 1 1014.0
20260903152403 87 36 7.0 16.5 0.00 0.00 0.00 1 1013.9
20260903152306 87 37 7.0 16.5 0.00 0.00 0.00 1 1014.0
20260903152203 87 39 7.0 16.5 0.00 0.00 0.00 1 1014.0
20260903152103 87 37 7.0 14.8 0.00 0.00 0.00 1 1014.0
20260903152003 87 37 7.0 14.8 0.00 0.00 0.00 1 1014.0
20260903151903 87 36 7.0 14.8 0.00 0.00 0.00 1 1014.0
20260903151803 87 35 7.0 14.8 0.00 0.00 0.00 1 1013.9
20260903151703 87 35 7.0 14.8 0.00 0.00 0.00 1 1013.9
20260903151603 87 35 7.0 14.8 0.00 0.00 0.00 1 1014.0
20260903151503 87 37 7.8 14.8 0.00 0.00 0.00 1 1014.0
20260903151403 87 37 7.8 14.8 0.00 0.00 0.00 1 1014.0
20260903151303 87 36 7.8 14.8 0.00 0.00 0.00 1 1013.9
20260903151203 87 35 7.8 13.0 0.00 0.00 0.00 1 1014.0
20260903151103 87 37 7.8 15.6 0.00 0.00 0.00 1 1014.0
20260903151003 87 36 7.8 15.6 0.00 0.00 0.00 1 1014.0
20260903150903 87 38 8.7 15.6 0.00 0.00 0.00 1 1014.0
20260903150803 87 40 8.7 15.6 0.00 0.00 0.00 1 1014.0
20260903150703 87 40 8.7 15.6 0.00 0.00 0.00 1 1014.0
20260903150603 87 40 7.8 15.6 0.00 0.00 0.00 1 1014.0
20260903150503 87 40 8.7 15.6 0.00 0.00 0.00 1 1014.1
20260903150403 87 43 7.8 15.6 0.00 0.00 0.00 1 1014.0
20260903150303 87 42 8.7 15.6 0.00 0.00 0.00 1 1014.0
20260903150203 87 42 7.8 15.6 0.00 0.00 0.00 1 1014.0
20260903150024 87 45 7.8 14.8 0.00 0.00 0.00 1 1014.0
20260903145903 87 45 7.8 13.9 0.00 0.00 0.00 1 1014.0
20260903145803 87 45 7.8 13.9 0.00 0.00 0.00 1 1014.0
20260903145703 87 47 7.8 13.9 0.00 0.00 0.00 1 1014.0
20260903145603 87 49 7.8 13.9 0.00 0.00 0.00 1 1014.1
20260903145503 87 49 7.8 13.9 0.00 0.00 0.00 1 1014.0
20260903145424 87 50 8.7 13.9 0.00 0.00 0.00 1 1014.0
20260903145305 87 52 8.7 13.9 0.00 0.00 0.00 1 1014.1
20260903145203 87 50 8.7 14.8 0.00 0.00 0.00 1 1014.0
20260903145103 87 49 8.7 14.8 0.00 0.00 0.00 1 1014.0
20260903145003 87 48 8.7 16.5 0.00 0.00 0.00 1 1014.1
20260903144903 86 48 8.7 16.5 0.00 0.00 0.00 1 1014.1
20260903144805 86 46 8.7 16.5 0.00 0.00 0.00 1 1014.0
20260903144703 86 44 8.7 16.5 0.00 0.00 0.00 1 1014.0
20260903144624 86 43 9.6 16.5 0.00 0.00 0.00 1 1014.0
20260903144503 86 42 8.7 16.5 0.00 0.00 0.00 1 1014.0
20260903144424 86 41 8.7 16.5 0.00 0.00 0.00 1 1014.0
20260903144303 86 41 8.7 16.5 0.00 0.00 0.00 1 1014.0
20260903144203 86 42 8.7 16.5 0.00 0.00 0.00 1 1014.0
20260903144103 86 42 8.7 16.5 0.00 0.00 0.00 1 1014.0
20260903144003 86 43 7.8 15.6 0.00 0.00 0.00 1 1014.0
20260903143903 86 44 8.7 15.6 0.00 0.00 0.00 1 1014.0
20260903143803 86 44 7.8 15.6 0.00 0.00 0.00 1 1014.0
20260903143703 86 44 7.8 15.6 0.00 0.00 0.00 1 1014.0
20260903143603 86 45 7.8 15.6 0.00 0.00 0.00 1 1014.0
20260903143503 86 43 8.7 18.2 0.00 0.00 0.00 1 1013.9
20260903143403 86 40 8.7 18.2 0.00 0.00 0.00 1 1013.9
20260903143303 86 41 8.7 18.2 0.00 0.00 0.00 1 1013.9
20260903143203 85 40 8.7 18.2 0.00 0.00 0.00 1 1013.9
20260903143103 85 40 8.7 18.2 0.00 0.00 0.00 1 1013.9
20260903143003 85 40 7.8 18.2 0.00 0.00 0.00 1 1013.8
20260903142903 85 40 7.8 18.2 0.00 0.00 0.00 1 1013.8
20260903142803 85 41 7.8 18.2 0.00 0.00 0.00 1 1013.9
20260903142703 85 41 7.0 18.2 0.00 0.00 0.00 1 1013.9
20260903142603 85 41 7.0 18.2 0.00 0.00 0.00 1 1013.9
20260903142503 85 43 7.0 15.6 0.00 0.00 0.00 1 1013.8
20260903142403 85 46 7.0 13.0 0.00 0.00 0.00 1 1013.9
20260903142306 85 43 7.0 14.8 0.00 0.00 0.00 1 1013.9
20260903142203 85 44 7.0 14.8 0.00 0.00 0.00 1 1013.9
20260903142103 85 44 7.0 14.8 0.00 0.00 0.00 1 1013.8
20260903142003 85 44 7.0 14.8 0.00 0.00 0.00 1 1013.8
20260903141903 85 44 7.0 14.8 0.00 0.00 0.00 1 1013.8
20260903141803 84 42 7.8 14.8 0.00 0.00 0.00 1 1013.8
20260903141703 84 44 7.8 14.8 0.00 0.00 0.00 1 1013.8
20260903141603 84 45 7.0 14.8 0.00 0.00 0.00 1 1013.8
20260903141503 84 45 7.8 14.8 0.00 0.00 0.00 1 1013.8
20260903141403 84 46 7.0 14.8 0.00 0.00 0.00 1 1013.8
20260903141303 84 47 7.0 14.8 0.00 0.00 0.00 1 1013.8
20260903141203 84 46 7.0 13.0 0.00 0.00 0.00 1 1013.8
20260903141124 84 46 7.0 13.0 0.00 0.00 0.00 1 1013.8
20260903141024 84 45 7.0 13.0 0.00 0.00 0.00 1 1013.8
20260903140903 84 45 7.0 13.0 0.00 0.00 0.00 1 1013.8
20260903140803 84 47 7.0 13.0 0.00 0.00 0.00 1 1013.9
20260903140703 84 46 7.8 13.0 0.00 0.00 0.00 1 1013.8
20260903140603 84 45 7.8 13.9 0.00 0.00 0.00 1 1013.8
20260903140503 84 44 8.7 15.6 0.00 0.00 0.00 1 1013.9
20260903140403 83 46 8.7 16.5 0.00 0.00 0.00 1 1013.9
20260903140303 83 47 8.7 16.5 0.00 0.00 0.00 1 1013.9
20260903140203 83 47 8.7 16.5 0.00 0.00 0.00 1 1013.9
20260903140003 83 46 8.7 16.5 0.00 0.00 0.00 1 1013.9
20260903135903 83 46 8.7 16.5 0.00 0.00 0.00 1 1013.8
20260903135803 83 45 8.7 16.5 0.00 0.00 0.00 1 1013.9
20260903135703 83 45 8.7 16.5 0.00 0.00 0.00 1 1013.8
20260903135603 83 46 9.6 16.5 0.00 0.00 0.00 1 1013.8
20260903135524 83 46 8.7 16.5 0.00 0.00 0.00 1 1013.8
20260903135424 83 45 8.7 16.5 0.00 0.00 0.00 1 1013.8
20260903135306 83 43 8.7 16.5 0.00 0.00 0.00 1 1013.9
20260903135203 83 44 8.7 16.5 0.00 0.00 0.00 1 1013.9
20260903135103 83 44 9.6 16.5 0.00 0.00 0.00 1 1013.9
20260903135003 83 44 8.7 16.5 0.00 0.00 0.00 1 1013.9
20260903134903 83 44 9.6 16.5 0.00 0.00 0.00 1 1013.9
20260903134724 83 43 9.6 16.5 0.00 0.00 0.00 1 1014.0
20260903134624 83 42 8.7 16.5 0.00 0.00 0.00 1 1013.9
20260903134503 83 43 8.7 15.6 0.00 0.00 0.00 1 1013.8
20260903134403 83 42 8.7 15.6 0.00 0.00 0.00 1 1013.9
20260903134303 83 39 8.7 15.6 0.00 0.00 0.00 1 1013.9
20260903134203 83 39 8.7 15.6 0.00 0.00 0.00 1 1013.9
20260903134124 83 39 8.7 15.6 0.00 0.00 0.00 1 1013.8
20260903134003 83 40 7.8 15.6 0.00 0.00 0.00 1 1013.8
20260903133903 83 39 7.8 15.6 0.00 0.00 0.00 1 1013.8
20260903133824 83 39 7.8 13.9 0.00 0.00 0.00 1 1013.8
20260903133726 83 38 7.0 13.9 0.00 0.00 0.00 1 1013.9
20260903133603 83 38 7.0 13.9 0.00 0.00 0.00 1 1013.9
20260903133503 83 38 6.1 13.9 0.00 0.00 0.00 1 1013.9
20260903133403 83 41 6.1 13.9 0.00 0.00 0.00 1 1013.9
20260903133303 82 44 6.1 13.9 0.00 0.00 0.00 1 1013.8
20260903133203 82 45 5.2 13.0 0.00 0.00 0.00 1 1013.9
20260903133103 82 44 5.2 13.0 0.00 0.00 0.00 1 1013.9
20260903133003 82 44 5.2 13.0 0.00 0.00 0.00 1 1013.9
20260903132903 82 45 5.2 13.0 0.00 0.00 0.00 1 1013.9
20260903132803 82 45 4.3 11.3 0.00 0.00 0.00 1 1013.9
20260903132703 82 46 5.2 11.3 0.00 0.00 0.00 1 1013.9
20260903132603 82 47 5.2 11.3 0.00 0.00 0.00 1 1013.9
20260903132503 82 48 5.2 11.3 0.00 0.00 0.00 1 1014.0
20260903132403 82 46 5.2 12.2 0.00 0.00 0.00 1 1014.0
20260903132324 82 46 5.2 12.2 0.00 0.00 0.00 1 1014.0
20260903132203 82 45 5.2 12.2 0.00 0.00 0.00 1 1013.9
20260903132124 82 46 5.2 12.2 0.00 0.00 0.00 1 1013.9
20260903132003 82 45 5.2 12.2 0.00 0.00 0.00 1 1014.0
20260903131903 81 44 6.1 12.2 0.00 0.00 0.00 1 1014.0
20260903131803 81 43 6.1 12.2 0.00 0.00 0.00 1 1013.9
20260903131703 81 43 6.1 12.2 0.00 0.00 0.00 1 1014.0
20260903131603 81 41 6.1 12.2 0.00 0.00 0.00 1 1014.0
20260903131503 81 40 6.1 12.2 0.00 0.00 0.00 1 1014.0
20260903131403 81 38 6.1 12.2 0.00 0.00 0.00 1 1014.0
20260903131303 81 38 5.2 12.2 0.00 0.00 0.00 1 1014.0
20260903131203 81 37 6.1 12.2 0.00 0.00 0.00 1 1014.0
20260903131103 81 39 6.1 12.2 0.00 0.00 0.00 1 1014.0
20260903131003 81 39 6.1 13.0 0.00 0.00 0.00 1 1014.0
20260903130903 81 38 6.1 13.0 0.00 0.00 0.00 1 1014.0
20260903130803 81 40 6.1 13.0 0.00 0.00 0.00 1 1014.0
20260903130724 81 39 6.1 13.0 0.00 0.00 0.00 1 1014.0
20260903130603 81 39 6.1 13.0 0.00 0.00 0.00 1 1014.0
20260903130503 81 38 6.1 13.0 0.00 0.00 0.00 1 1014.0
20260903130403 81 39 6.1 13.0 0.00 0.00 0.00 1 1014.0
20260903130303 81 39 6.1 13.0 0.00 0.00 0.00 1 1013.9
20260903130203 81 40 6.1 13.0 0.00 0.00 0.00 1 1014.0
20260903130003 81 39 6.1 12.2 0.00 0.00 0.00 1 1014.0
20260903125903 81 38 6.1 12.2 0.00 0.00 0.00 1 1014.0
20260903125824 81 39 6.1 12.2 0.00 0.00 0.00 1 1013.9
20260903125724 81 39 6.1 11.3 0.00 0.00 0.00 1 1014.0
20260903125603 81 40 6.1 11.3 0.00 0.00 0.00 1 1014.0
20260903125503 81 42 6.1 11.3 0.00 0.00 0.00 1 1013.9
20260903125403 81 42 6.1 11.3 0.00 0.00 0.00 1 1013.9
20260903125324 81 42 6.1 11.3 0.00 0.00 0.00 1 1013.9
20260903125203 81 40 6.1 11.3 0.00 0.00 0.00 1 1013.9
20260903125103 81 40 6.1 11.3 0.00 0.00 0.00 1 1013.9
20260903125003 81 39 6.1 11.3 0.00 0.00 0.00 1 1013.9
20260903124903 81 40 6.1 11.3 0.00 0.00 0.00 1 1013.8
20260903124803 81 41 5.2 11.3 0.00 0.00 0.00 1 1013.8
20260903124703 81 43 6.1 11.3 0.00 0.00 0.00 1 1013.8
20260903124624 81 42 6.1 11.3 0.00 0.00 0.00 1 1013.8
20260903124503 81 41 5.2 11.3 0.00 0.00 0.00 1 1013.8
20260903124403 81 42 5.2 11.3 0.00 0.00 0.00 1 1013.8
20260903124303 81 44 6.1 11.3 0.00 0.00 0.00 1 1013.8
20260903124203 81 43 6.1 11.3 0.00 0.00 0.00 1 1013.8
20260903124124 81 44 6.1 11.3 0.00 0.00 0.00 1 1013.8
20260903124003 81 45 6.1 11.3 0.00 0.00 0.00 1 1013.8
20260903123903 81 43 6.1 11.3 0.00 0.00 0.00 1 1013.8
20260903123803 81 42 6.1 11.3 0.00 0.00 0.00 1 1013.8
20260903123703 81 41 6.1 11.3 0.00 0.00 0.00 1 1013.8
20260903123624 81 42 6.1 11.3 0.00 0.00 0.00 1 1013.8
20260903123503 81 42 6.1 11.3 0.00 0.00 0.00 1 1013.8
20260903123403 81 42 6.1 11.3 0.00 0.00 0.00 1 1013.7
20260903123324 81 41 6.1 12.2 0.00 0.00 0.00 1 1013.7
20260903123203 81 40 6.1 12.2 0.00 0.00 0.00 1 1013.7
20260903123124 81 41 6.1 12.2 0.00 0.00 0.00 1 1013.7
20260903123003 81 40 6.1 12.2 0.00 0.00 0.00 1 1013.7
20260903122903 81 41 6.1 12.2 0.00 0.00 0.00 1 1013.7
20260903122824 81 41 6.1 12.2 0.00 0.00 0.00 1 1013.8
20260903122703 81 40 6.1 12.2 0.00 0.00 0.00 1 1013.6
20260903122603 81 40 6.1 12.2 0.00 0.00 0.00 1 1013.7
20260903122524 81 39 6.1 12.2 0.00 0.00 0.00 1 1013.6
20260903122403 81 39 6.1 12.2 0.00 0.00 0.00 1 1013.7
20260903122305 81 40 6.1 11.3 0.00 0.00 0.00 1 1013.6
20260903122203 81 40 6.1 11.3 0.00 0.00 0.00 1 1013.6
20260903122103 81 40 6.1 11.3 0.00 0.00 0.00 1 1013.6
20260903122003 81 42 6.1 11.3 0.00 0.00 0.00 1 1013.6
20260903121903 81 44 6.1 11.3 0.00 0.00 0.00 1 1013.6
20260903121803 81 44 6.1 12.2 0.00 0.00 0.00 1 1013.6
20260903121703 81 44 6.1 12.2 0.00 0.00 0.00 1 1013.6
20260903121624 81 43 6.1 12.2 0.00 0.00 0.00 1 1013.6
20260903121524 81 44 5.2 12.2 0.00 0.00 0.00 1 1013.6
20260903121403 81 44 5.2 12.2 0.00 0.00 0.00 1 1013.7
20260903121324 80 45 5.2 12.2 0.00 0.00 0.00 1 1013.6
20260903121203 80 44 5.2 12.2 0.00 0.00 0.00 1 1013.6
20260903121103 80 43 5.2 12.2 0.00 0.00 0.00 1 1013.6
20260903121003 80 42 4.3 12.2 0.00 0.00 0.00 1 1013.6
20260903120903 80 41 4.3 12.2 0.00 0.00 0.00 1 1013.6
20260903120803 80 40 4.3 9.6 0.00 0.00 0.00 1 1013.6
20260903120703 80 40 4.3 9.6 0.00 0.00 0.00 1 1013.6
20260903120603 80 39 4.3 8.7 0.00 0.00 0.00 1 1013.6
20260903120503 80 37 5.2 10.4 0.00 0.00 0.00 1 1013.7
20260903120403 80 39 5.2 10.4 0.00 0.00 0.00 1 1013.7
20260903120303 80 39 4.3 10.4 0.00 0.00 0.00 1 1013.6
20260903120224 80 38 4.3 10.4 0.00 0.00 0.00 1 1013.6
20260903120003 80 39 5.2 10.4 0.00 0.00 0.00 1 1013.6
20260903115903 80 39 5.2 10.4 0.00 0.00 0.00 1 1013.5
20260903115803 80 40 5.2 10.4 0.00 0.00 0.00 1 1013.5
20260903115703 80 40 5.2 10.4 0.00 0.00 0.00 1 1013.5
20260903115603 80 42 4.3 10.4 0.00 0.00 0.00 1 1013.5
20260903115524 80 43 4.3 10.4 0.00 0.00 0.00 1 1013.5
20260903115403 80 43 4.3 8.7 0.00 0.00 0.00 1 1013.5
20260903115324 80 44 4.3 8.7 0.00 0.00 0.00 1 1013.5
20260903115203 80 44 4.3 8.7 0.00 0.00 0.00 1 1013.6
20260903115103 80 46 3.5 8.7 0.00 0.00 0.00 1 1013.5
20260903115003 80 47 3.5 8.7 0.00 0.00 0.00 1 1013.5
20260903114903 80 48 3.5 7.0 0.00 0.00 0.00 1 1013.5
20260903114803 80 50 3.5 7.0 0.00 0.00 0.00 1 1013.5
20260903114703 80 51 3.5 7.0 0.00 0.00 0.00 1 1013.6
20260903114603 80 52 3.5 7.0 0.00 0.00 0.00 1 1013.5
20260903114503 80 53 3.5 7.0 0.00 0.00 0.00 1 1013.5
20260903114403 80 52 3.5 7.0 0.00 0.00 0.00 1 1013.5
20260903114303 80 50 3.5 7.0 0.00 0.00 0.00 1 1013.5
20260903114203 80 50 2.6 6.1 0.00 0.00 0.00 1 1013.5
20260903114104 80 47 3.5 7.0 0.00 0.00 0.00 1 1013.5
20260903114004 80 46 3.5 7.0 0.00 0.00 0.00 1 1013.5
20260903113904 80 42 3.5 8.7 0.00 0.00 0.00 1 1013.5
20260903113804 80 40 3.5 10.4 0.00 0.00 0.00 1 1013.5
20260903113704 80 39 4.3 10.4 0.00 0.00 0.00 1 1013.5
20260903113625 80 36 4.3 10.4 0.00 0.00 0.00 1 1013.5
20260903113504 80 31 4.3 10.4 0.00 0.00 0.00 1 1013.5
20260903113405 81 30 4.3 10.4 0.00 0.00 0.00 1 1013.5
20260903113325 81 30 4.3 10.4 0.00 0.00 0.00 1 1013.5
20260903113225 81 30 4.3 10.4 0.00 0.00 0.00 1 1013.4
20260903113104 81 29 4.3 10.4 0.00 0.00 0.00 1 1013.5
20260903113025 81 30 4.3 10.4 0.00 0.00 0.00 1 1013.5
20260903112925 81 32 4.3 10.4 0.00 0.00 0.00 1 1013.5
20260903112804 81 32 5.2 11.3 0.00 0.00 0.00 1 1013.5
20260903112704 81 34 4.3 11.3 0.00 0.00 0.00 1 1013.5
20260903112604 81 35 4.3 11.3 0.00 0.00 0.00 1 1013.5
20260903112505 81 38 4.3 11.3 0.00 0.00 0.00 1 1013.5
20260903112425 81 40 4.3 11.3 0.00 0.00 0.00 1 1013.5
20260903112305 81 40 4.3 11.3 0.00 0.00 0.00 1 1013.5
20260903112205 81 41 4.3 11.3 0.00 0.00 0.00 1 1013.5
20260903112104 81 43 4.3 11.3 0.00 0.00 0.00 1 1013.5
20260903112025 81 41 4.3 11.3 0.00 0.00 0.00 1 1013.5
20260903111904 81 40 4.3 11.3 0.00 0.00 0.00 1 1013.5
20260903111804 81 38 4.3 9.6 0.00 0.00 0.00 1 1013.5
20260903111725 81 36 4.3 9.6 0.00 0.00 0.00 1 1013.4
20260903111604 81 36 4.3 9.6 0.00 0.00 0.00 1 1013.4
20260903111504 81 35 4.3 9.6 0.00 0.00 0.00 1 1013.4
20260903111404 81 35 5.2 12.2 0.00 0.00 0.00 1 1013.4
20260903111306 81 35 5.2 12.2 0.00 0.00 0.00 1 1013.4
20260903111204 81 35 5.2 12.2 0.00 0.00 0.00 1 1013.4
20260903111104 81 35 5.2 12.2 0.00 0.00 0.00 1 1013.4
20260903111004 81 36 5.2 12.2 0.00 0.00 0.00 1 1013.5
20260903110904 81 38 5.2 12.2 0.00 0.00 0.00 1 1013.4
20260903110827 81 38 5.2 12.2 0.00 0.00 0.00 1 1013.4
20260903110704 81 38 5.2 12.2 0.00 0.00 0.00 1 1013.4
20260903110604 81 39 5.2 12.2 0.00 0.00 0.00 1 1013.4
20260903110504 81 40 5.2 12.2 0.00 0.00 0.00 1 1013.4
20260903110404 81 42 5.2 12.2 0.00 0.00 0.00 1 1013.4
20260903110325 81 41 5.2 12.2 0.00 0.00 0.00 1 1013.3
20260903110204 81 40 5.2 12.2 0.00 0.00 0.00 1 1013.4
20260903110104 81 41 5.2 12.2 0.00 0.00 0.00 1 1013.4
20260903110004 81 40 5.2 12.2 0.00 0.00 0.00 1 1013.4
20260903105904 81 38 5.2 12.2 0.00 0.00 0.00 1 1013.4
20260903105804 81 38 5.2 12.2 0.00 0.00 0.00 1 1013.4
20260903105705 81 38 5.2 12.2 0.00 0.00 0.00 1 1013.4
20260903105604 81 37 5.2 11.3 0.00 0.00 0.00 1 1013.4
20260903105504 81 35 5.2 11.3 0.00 0.00 0.00 1 1013.4
20260903105404 81 33 5.2 11.3 0.00 0.00 0.00 1 1013.3
20260903105325 81 35 5.2 11.3 0.00 0.00 0.00 1 1013.4
20260903105204 81 38 4.3 9.6 0.00 0.00 0.00 1 1013.3
20260903105104 81 38 4.3 9.6 0.00 0.00 0.00 1 1013.3
20260903105025 81 40 4.3 9.6 0.00 0.00 0.00 1 1013.3
20260903104904 81 41 4.3 9.6 0.00 0.00 0.00 1 1013.3
20260903104825 81 42 4.3 9.6 0.00 0.00 0.00 1 1013.3
20260903104704 81 40 4.3 10.4 0.00 0.00 0.00 1 1013.3
20260903104604 81 41 4.3 10.4 0.00 0.00 0.00 1 1013.3
20260903104504 81 42 4.3 10.4 0.00 0.00 0.00 1 1013.3
20260903104404 81 42 4.3 10.4 0.00 0.00 0.00 1 1013.2
20260903104304 81 41 4.3 10.4 0.00 0.00 0.00 1 1013.3
20260903104204 81 38 4.3 10.4 0.00 0.00 0.00 1 1013.3
20260903104104 81 36 4.3 10.4 0.00 0.00 0.00 1 1013.2
20260903104025 81 35 4.3 10.4 0.00 0.00 0.00 1 1013.2
20260903103904 80 35 4.3 10.4 0.00 0.00 0.00 1 1013.2
20260903103804 80 37 3.5 10.4 0.00 0.00 0.00 1 1013.2
20260903103704 80 37 3.5 9.6 0.00 0.00 0.00 1 1013.2
20260903103604 80 37 3.5 9.6 0.00 0.00 0.00 1 1013.2
20260903103504 80 38 3.5 7.8 0.00 0.00 0.00 1 1013.1
20260903103425 80 38 3.5 7.8 0.00 0.00 0.00 1 1013.2
20260903103325 80 38 4.3 12.2 0.00 0.00 0.00 1 1013.2
20260903103204 80 42 4.3 12.2 0.00 0.00 0.00 1 1013.1
20260903103104 80 42 4.3 12.2 0.00 0.00 0.00 1 1013.2
20260903103004 80 43 4.3 12.2 0.00 0.00 0.00 1 1013.1
20260903102904 80 44 4.3 12.2 0.00 0.00 0.00 1 1013.1
20260903102804 80 44 4.3 12.2 0.00 0.00 0.00 1 1013.1
20260903102704 80 46 4.3 12.2 0.00 0.00 0.00 1 1013.1
20260903102625 80 46 4.3 12.2 0.00 0.00 0.00 1 1013.1
20260903102504 80 46 4.3 12.2 0.00 0.00 0.00 1 1013.1
20260903102404 80 46 4.3 12.2 0.00 0.00 0.00 1 1013.1
20260903102306 80 45 4.3 10.4 0.00 0.00 0.00 1 1013.1
20260903102204 80 42 5.2 10.4 0.00 0.00 0.00 1 1013.1
20260903102104 80 41 5.2 12.2 0.00 0.00 0.00 1 1013.1
20260903102004 80 40 5.2 12.2 0.00 0.00 0.00 1 1013.1
20260903101906 80 36 5.2 12.2 0.00 0.00 0.00 1 1013.2
20260903101804 80 34 5.2 12.2 0.00 0.00 0.00 1 1013.1
20260903101704 80 33 5.2 12.2 0.00 0.00 0.00 1 1013.1
20260903101604 80 34 5.2 12.2 0.00 0.00 0.00 1 1013.1
20260903101504 80 34 5.2 12.2 0.00 0.00 0.00 1 1013.1
20260903101404 80 33 5.2 12.2 0.00 0.00 0.00 1 1013.1
20260903101304 80 33 4.3 12.2 0.00 0.00 0.00 1 1013.2
20260903101204 80 35 4.3 12.2 0.00 0.00 0.00 1 1013.2
20260903101105 80 37 4.3 9.6 0.00 0.00 0.00 1 1013.1
20260903101004 80 39 4.3 9.6 0.00 0.00 0.00 1 1013.1
20260903100904 80 44 4.3 9.6 0.00 0.00 0.00 1 1013.1
20260903100804 80 44 4.3 9.6 0.00 0.00 0.00 1 1013.1
20260903100704 80 44 4.3 9.6 0.00 0.00 0.00 1 1013.1
20260903100625 80 43 4.3 9.6 0.00 0.00 0.00 1 1013.1
20260903100504 80 43 4.3 9.6 0.00 0.00 0.00 1 1013.1
20260903100404 80 45 3.5 7.8 0.00 0.00 0.00 1 1013.1
20260903100304 80 47 3.5 7.8 0.00 0.00 0.00 1 1013.1
20260903100204 80 47 4.3 7.8 0.00 0.00 0.00 1 1013.1
20260903100104 80 47 4.3 7.8 0.00 0.00 0.00 1 1013.1
20260903100004 80 47 4.3 7.8 0.00 0.00 0.00 1 1013.1
20260903095925 80 45 4.3 7.8 0.00 0.00 0.00 1 1013.1
20260903095804 80 46 3.5 7.8 0.00 0.00 0.00 1 1013.1
20260903095727 80 47 3.5 7.8 0.00 0.00 0.00 1 1013.1
20260903095604 80 48 3.5 7.8 0.00 0.00 0.00 1 1013.2
20260903095525 80 49 3.5 7.8 0.00 0.00 0.00 1 1013.2
20260903095404 80 49 4.3 7.8 0.00 0.00 0.00 1 1013.2
20260903095306 80 49 4.3 7.8 0.00 0.00 0.00 1 1013.2
20260903095225 80 49 4.3 7.8 0.00 0.00 0.00 1 1013.2
20260903095104 80 48 4.3 7.8 0.00 0.00 0.00 1 1013.2
20260903095004 80 46 4.3 7.8 0.00 0.00 0.00 1 1013.3
20260903094904 80 45 5.2 11.3 0.00 0.00 0.00 1 1013.2
20260903094804 80 44 5.2 11.3 0.00 0.00 0.00 1 1013.3
20260903094704 80 44 5.2 11.3 0.00 0.00 0.00 1 1013.3
20260903094625 80 44 5.2 11.3 0.00 0.00 0.00 1 1013.3
20260903094525 80 44 5.2 11.3 0.00 0.00 0.00 1 1013.3
20260903094404 80 43 5.2 11.3 0.00 0.00 0.00 1 1013.3
20260903094306 80 42 5.2 11.3 0.00 0.00 0.00 1 1013.3
20260903094204 80 43 5.2 11.3 0.00 0.00 0.00 1 1013.3
20260903094104 80 42 5.2 11.3 0.00 0.00 0.00 1 1013.3
20260903094004 80 41 5.2 11.3 0.00 0.00 0.00 1 1013.3
20260903093904 80 42 5.2 8.7 0.00 0.00 0.00 1 1013.3
20260903093804 80 42 5.2 9.6 0.00 0.00 0.00 1 1013.3
20260903093704 80 42 5.2 9.6 0.00 0.00 0.00 1 1013.3
20260903093604 80 42 5.2 9.6 0.00 0.00 0.00 1 1013.3
20260903093504 80 41 5.2 10.4 0.00 0.00 0.00 1 1013.3
20260903093404 80 41 5.2 10.4 0.00 0.00 0.00 1 1013.4
20260903093304 80 41 5.2 10.4 0.00 0.00 0.00 1 1013.3
20260903093204 80 42 5.2 10.4 0.00 0.00 0.00 1 1013.4
20260903093104 80 44 5.2 10.4 0.00 0.00 0.00 1 1013.4
20260903093004 80 45 5.2 10.4 0.00 0.00 0.00 1 1013.4
20260903092904 80 45 4.3 10.4 0.00 0.00 0.00 1 1013.4
20260903092804 80 46 4.3 10.4 0.00 0.00 0.00 1 1013.4
20260903092725 80 46 4.3 10.4 0.00 0.00 0.00 1 1013.4
20260903092604 80 46 4.3 10.4 0.00 0.00 0.00 1 1013.4
20260903092504 80 47 4.3 9.6 0.00 0.00 0.00 1 1013.4
20260903092404 80 46 4.3 8.7 0.00 0.00 0.00 1 1013.4
20260903092325 80 47 4.3 8.7 0.00 0.00 0.00 1 1013.4
20260903092204 81 47 4.3 8.7 0.00 0.00 0.00 1 1013.4
20260903092104 81 47 4.3 8.7 0.00 0.00 0.00 1 1013.4
20260903092004 81 47 4.3 8.7 0.00 0.00 0.00 1 1013.3
20260903091904 81 47 3.5 8.7 0.00 0.00 0.00 1 1013.4
20260903091825 81 46 4.3 8.7 0.00 0.00 0.00 1 1013.4
20260903091704 81 43 4.3 10.4 0.00 0.00 0.00 1 1013.4
20260903091604 81 42 4.3 10.4 0.00 0.00 0.00 1 1013.4
20260903091504 81 42 4.3 10.4 0.00 0.00 0.00 1 1013.4
20260903091404 81 43 4.3 10.4 0.00 0.00 0.00 1 1013.5
20260903091304 81 42 5.2 10.4 0.00 0.00 0.00 1 1013.4
20260903091204 81 41 5.2 10.4 0.00 0.00 0.00 1 1013.5
20260903091104 81 40 5.2 13.0 0.00 0.00 0.00 1 1013.5
20260903091004 81 40 6.1 13.0 0.00 0.00 0.00 1 1013.5
20260903090904 81 41 6.1 13.0 0.00 0.00 0.00 1 1013.5
20260903090804 81 44 6.1 13.0 0.00 0.00 0.00 1 1013.5
20260903090706 81 45 6.1 13.0 0.00 0.00 0.00 1 1013.5
20260903090604 81 45 6.1 13.0 0.00 0.00 0.00 1 1013.5
20260903090504 81 44 6.1 13.0 0.00 0.00 0.00 1 1013.5
20260903090404 81 43 6.1 13.0 0.00 0.00 0.00 1 1013.5
20260903090304 81 43 6.1 13.0 0.00 0.00 0.00 1 1013.4
20260903090204 81 43 6.1 13.0 0.00 0.00 0.00 1 1013.4
20260903090104 81 45 5.2 12.2 0.00 0.00 0.00 1 1013.4
20260903090004 81 46 5.2 12.2 0.00 0.00 0.00 1 1013.4
20260903085904 81 44 6.1 12.2 0.00 0.00 0.00 1 1013.5
20260903085804 81 43 6.1 12.2 0.00 0.00 0.00 1 1013.4
20260903085704 81 43 5.2 12.2 0.00 0.00 0.00 1 1013.5
20260903085604 81 43 5.2 12.2 0.00 0.00 0.00 1 1013.5
20260903085504 81 45 5.2 12.2 0.00 0.00 0.00 1 1013.4
20260903085404 81 46 5.2 12.2 0.00 0.00 0.00 1 1013.4
20260903085306 81 46 4.3 8.7 0.00 0.00 0.00 1 1013.4
20260903085204 81 46 4.3 8.7 0.00 0.00 0.00 1 1013.4
20260903085104 81 45 5.2 12.2 0.00 0.00 0.00 1 1013.5
20260903085004 81 44 4.3 12.2 0.00 0.00 0.00 1 1013.4
20260903084904 81 46 4.3 12.2 0.00 0.00 0.00 1 1013.5
20260903084825 81 45 4.3 12.2 0.00 0.00 0.00 1 1013.4
20260903084725 81 44 5.2 12.2 0.00 0.00 0.00 1 1013.5
20260903084604 81 40 5.2 12.2 0.00 0.00 0.00 1 1013.5
20260903084504 81 40 5.2 12.2 0.00 0.00 0.00 1 1013.5
20260903084404 81 38 5.2 12.2 0.00 0.00 0.00 1 1013.5
20260903084304 81 36 5.2 12.2 0.00 0.00 0.00 1 1013.5
20260903084227 81 36 5.2 12.2 0.00 0.00 0.00 1 1013.5
20260903084106 81 36 5.2 10.4 0.00 0.00 0.00 1 1013.5
20260903084004 81 38 5.2 10.4 0.00 0.00 0.00 1 1013.5
20260903083925 81 36 5.2 11.3 0.00 0.00 0.00 1 1013.5
20260903083804 81 35 5.2 11.3 0.00 0.00 0.00 1 1013.5
20260903083704 81 35 5.2 11.3 0.00 0.00 0.00 1 1013.4
20260903083604 81 37 5.2 11.3 0.00 0.00 0.00 1 1013.4
20260903083504 81 38 5.2 11.3 0.00 0.00 0.00 1 1013.4
20260903083404 81 39 5.2 11.3 0.00 0.00 0.00 1 1013.4
20260903083304 81 38 5.2 11.3 0.00 0.00 0.00 1 1013.4
20260903083204 81 39 5.2 11.3 0.00 0.00 0.00 1 1013.4
20260903083104 81 38 5.2 11.3 0.00 0.00 0.00 1 1013.4
20260903083025 81 36 5.2 11.3 0.00 0.00 0.00 1 1013.4
20260903082925 81 36 5.2 10.4 0.00 0.00 0.00 1 1013.4
20260903082804 81 36 4.3 10.4 0.00 0.00 0.00 1 1013.4
20260903082704 81 35 4.3 9.6 0.00 0.00 0.00 1 1013.4
20260903082625 81 36 5.2 9.6 0.00 0.00 0.00 1 1013.4
20260903082504 81 36 5.2 9.6 0.00 0.00 0.00 1 1013.4
20260903082425 81 35 5.2 13.0 0.00 0.00 0.00 1 1013.4
20260903082306 81 35 5.2 13.9 0.00 0.00 0.00 1 1013.4
20260903082204 81 34 5.2 13.9 0.00 0.00 0.00 1 1013.4
20260903082125 81 33 5.2 13.9 0.00 0.00 0.00 1 1013.5
20260903082004 81 35 5.2 13.9 0.00 0.00 0.00 1 1013.4
20260903081904 81 34 6.1 13.9 0.00 0.00 0.00 1 1013.4
20260903081804 81 35 6.1 13.9 0.00 0.00 0.00 1 1013.5
20260903081725 81 35 6.1 13.9 0.00 0.00 0.00 1 1013.4
20260903081604 81 35 6.1 13.9 0.00 0.00 0.00 1 1013.5
20260903081504 81 36 6.1 13.9 0.00 0.00 0.00 1 1013.5
20260903081426 81 35 6.1 13.9 0.00 0.00 0.00 1 1013.4
20260903081304 81 37 6.1 13.0 0.00 0.00 0.00 1 1013.5
20260903081227 81 38 6.1 13.0 0.00 0.00 0.00 1 1013.4
20260903081125 81 39 6.1 13.0 0.00 0.00 0.00 1 1013.4
20260903081025 81 37 6.1 13.0 0.00 0.00 0.00 1 1013.4
20260903080904 81 35 6.1 13.0 0.00 0.00 0.00 1 1013.4
20260903080804 81 34 6.1 13.0 0.00 0.00 0.00 1 1013.4
20260903080704 82 34 6.1 13.0 0.00 0.00 0.00 1 1013.4
20260903080604 82 33 6.1 13.9 0.00 0.00 0.00 1 1013.4
20260903080525 82 33 7.0 13.9 0.00 0.00 0.00 1 1013.4
20260903080404 82 32 7.0 13.9 0.00 0.00 0.00 1 1013.4
20260903080304 82 31 7.0 13.9 0.00 0.00 0.00 1 1013.3
20260903080204 82 32 7.0 13.9 0.00 0.00 0.00 1 1013.4
20260903080104 82 32 7.0 13.9 0.00 0.00 0.00 1 1013.3
20260903080025 82 32 7.0 13.9 0.00 0.00 0.00 1 1013.4
20260903075904 82 31 7.0 13.9 0.00 0.00 0.00 1 1013.4
20260903075825 82 31 7.0 13.9 0.00 0.00 0.00 1 1013.3
20260903075704 82 31 7.0 13.9 0.00 0.00 0.00 1 1013.4
20260903075604 82 32 7.0 13.0 0.00 0.00 0.00 1 1013.3
20260903075504 82 32 7.0 13.0 0.00 0.00 0.00 1 1013.3
20260903075404 82 33 7.0 13.0 0.00 0.00 0.00 1 1013.3
20260903075306 82 32 6.1 13.0 0.00 0.00 0.00 1 1013.3
20260903075225 82 31 6.1 13.0 0.00 0.00 0.00 1 1013.3
20260903075104 82 29 6.1 13.0 0.00 0.00 0.00 1 1013.3
20260903075025 82 28 6.1 13.0 0.00 0.00 0.00 1 1013.3
20260903074904 82 33 5.2 13.0 0.00 0.00 0.00 1 1013.3
20260903074825 82 33 5.2 13.0 0.00 0.00 0.00 1 1013.4
20260903074704 82 33 5.2 11.3 0.00 0.00 0.00 1 1013.4
20260903074604 82 33 5.2 11.3 0.00 0.00 0.00 1 1013.3
20260903074504 82 31 5.2 11.3 0.00 0.00 0.00 1 1013.3
20260903074404 82 33 5.2 9.6 0.00 0.00 0.00 1 1013.4
20260903074325 82 33 5.2 10.4 0.00 0.00 0.00 1 1013.4
20260903074204 82 37 5.2 10.4 0.00 0.00 0.00 1 1013.4
20260903074104 82 37 5.2 10.4 0.00 0.00 0.00 1 1013.4
20260903074004 82 37 5.2 10.4 0.00 0.00 0.00 1 1013.4
20260903073904 82 37 5.2 10.4 0.00 0.00 0.00 1 1013.4
20260903073825 82 38 5.2 10.4 0.00 0.00 0.00 1 1013.4
20260903073725 82 36 5.2 10.4 0.00 0.00 0.00 1 1013.4
20260903073604 82 37 5.2 10.4 0.00 0.00 0.00 1 1013.4
20260903073504 82 38 5.2 10.4 0.00 0.00 0.00 1 1013.5
20260903073404 82 37 5.2 10.4 0.00 0.00 0.00 1 1013.4
20260903073304 82 37 5.2 10.4 0.00 0.00 0.00 1 1013.4
20260903073225 82 36 5.2 10.4 0.00 0.00 0.00 1 1013.4
20260903073104 82 35 5.2 10.4 0.00 0.00 0.00 1 1013.4
20260903073004 82 33 5.2 10.4 0.00 0.00 0.00 1 1013.4
20260903072925 82 31 5.2 9.6 0.00 0.00 0.00 1 1013.5
20260903072804 82 30 5.2 9.6 0.00 0.00 0.00 1 1013.4
20260903072704 82 31 5.2 9.6 0.00 0.00 0.00 1 1013.5
20260903072604 82 29 5.2 9.6 0.00 0.00 0.00 1 1013.5
20260903072504 82 31 5.2 9.6 0.00 0.00 0.00 1 1013.5
20260903072425 82 31 5.2 9.6 0.00 0.00 0.00 1 1013.5
20260903072306 82 31 5.2 11.3 0.00 0.00 0.00 1 1013.5
20260903072204 82 33 5.2 11.3 0.00 0.00 0.00 1 1013.5
20260903072104 82 34 4.3 11.3 0.00 0.00 0.00 1 1013.5
20260903072004 82 34 4.3 11.3 0.00 0.00 0.00 1 1013.5
20260903071905 82 33 5.2 11.3 0.00 0.00 0.00 1 1013.5
20260903071804 82 35 4.3 11.3 0.00 0.00 0.00 1 1013.5
20260903071704 82 36 4.3 11.3 0.00 0.00 0.00 1 1013.5
20260903071605 82 34 4.3 11.3 0.00 0.00 0.00 1 1013.5
20260903071504 82 32 4.3 11.3 0.00 0.00 0.00 1 1013.6
20260903071425 82 31 4.3 11.3 0.00 0.00 0.00 1 1013.5
20260903071304 82 27 4.3 11.3 0.00 0.00 0.00 1 1013.5
20260903071204 82 22 4.3 10.4 0.00 0.00 0.00 1 1013.5
20260903071125 82 18 4.3 10.4 0.00 0.00 0.00 1 1013.6
20260903071004 82 12 4.3 10.4 0.00 0.00 0.00 1 1013.6
20260903070904 82 11 3.5 10.4 0.00 0.00 0.00 1 1013.6
20260903070825 82 10 3.5 7.8 0.00 0.00 0.00 1 1013.6
20260903070704 82 9 3.5 7.8 0.00 0.00 0.00 1 1013.6
20260903070604 82 10 3.5 7.8 0.00 0.00 0.00 1 1013.6
20260903070504 82 11 3.5 7.8 0.00 0.00 0.00 1 1013.6
20260903070404 82 11 3.5 9.6 0.00 0.00 0.00 1 1013.7
20260903070304 82 12 3.5 9.6 0.00 0.00 0.00 1 1013.7
20260903070204 82 18 3.5 9.6 0.00 0.00 0.00 1 1013.7
20260903070104 82 23 3.5 9.6 0.00 0.00 0.00 1 1013.7
20260903070004 82 26 4.3 9.6 0.00 0.00 0.00 1 1013.6
20260903065904 82 27 3.5 9.6 0.00 0.00 0.00 1 1013.7
20260903065804 82 28 3.5 9.6 0.00 0.00 0.00 1 1013.7
20260903065704 82 25 3.5 9.6 0.00 0.00 0.00 1 1013.6
20260903065604 82 27 4.3 9.6 0.00 0.00 0.00 1 1013.7
20260903065504 82 29 4.3 9.6 0.00 0.00 0.00 1 1013.7
20260903065404 82 28 3.5 7.8 0.00 0.00 0.00 1 1013.7
20260903065306 82 31 3.5 7.8 0.00 0.00 0.00 1 1013.6
20260903065204 82 31 3.5 7.8 0.00 0.00 0.00 1 1013.6
20260903065104 82 31 3.5 7.8 0.00 0.00 0.00 1 1013.7
20260903065004 82 33 3.5 7.8 0.00 0.00 0.00 1 1013.6
20260903064925 82 32 3.5 7.8 0.00 0.00 0.00 1 1013.7
20260903064804 82 28 3.5 7.8 0.00 0.00 0.00 1 1013.8
20260903064704 82 30 3.5 7.0 0.00 0.00 0.00 1 1013.7
20260903064604 82 31 3.5 7.0 0.00 0.00 0.00 1 1013.6
20260903064504 82 31 3.5 7.0 0.00 0.00 0.00 1 1013.7
20260903064404 82 32 3.5 7.0 0.00 0.00 0.00 1 1013.7
20260903064304 82 27 3.5 7.0 0.00 0.00 0.00 1 1013.7
20260903064225 82 24 3.5 7.0 0.00 0.00 0.00 1 1013.7
20260903064104 82 18 2.6 7.0 0.00 0.00 0.00 1 1013.7
20260903064004 82 13 3.5 7.0 0.00 0.00 0.00 1 1013.8
20260903063905 82 14 3.5 7.0 0.00 0.00 0.00 1 1013.8
20260903063804 82 16 2.6 7.0 0.00 0.00 0.00 1 1013.8
20260903063704 82 14 3.5 8.7 0.00 0.00 0.00 1 1013.8
20260903063604 82 15 3.5 8.7 0.00 0.00 0.00 1 1013.8
20260903063504 82 13 3.5 8.7 0.00 0.00 0.00 1 1013.8
20260903063405 81 14 3.5 8.7 0.00 0.00 0.00 1 1013.8
20260903063304 81 12 3.5 8.7 0.00 0.00 0.00 1 1013.9
20260903063204 81 16 3.5 8.7 0.00 0.00 0.00 1 1013.8
20260903063104 81 23 3.5 8.7 0.00 0.00 0.00 1 1013.8
20260903063004 81 27 3.5 8.7 0.00 0.00 0.00 1 1013.8
20260903062904 81 24 3.5 8.7 0.00 0.00 0.00 1 1013.8
20260903062806 81 19 3.5 8.7 0.00 0.00 0.00 1 1013.9
20260903062704 81 12 3.5 7.0 0.00 0.00 0.00 1 1013.9
20260903062604 81 10 3.5 7.0 0.00 0.00 0.00 1 1013.8
20260903062504 81 6 3.5 7.0 0.00 0.00 0.00 1 1013.8
20260903062404 81 355 2.6 7.0 0.00 0.00 0.00 1 1013.9
20260903062306 81 355 2.6 7.0 0.00 0.00 0.00 1 1013.9
20260903062204 81 348 2.6 7.0 0.00 0.00 0.00 1 1013.8
20260903062105 82 337 2.6 7.0 0.00 0.00 0.00 1 1013.8
20260903062004 82 320 2.6 7.0 0.00 0.00 0.00 1 1013.8
20260903061904 82 318 2.6 7.0 0.00 0.00 0.00 1 1013.9
20260903061805 82 317 2.6 7.0 0.00 0.00 0.00 1 1013.8
20260903061704 82 315 2.6 7.0 0.00 0.00 0.00 1 1013.9
20260903061604 82 307 2.6 6.1 0.00 0.00 0.00 1 1013.8
20260903061505 82 305 2.6 6.1 0.00 0.00 0.00 1 1013.8
20260903061404 82 309 2.6 6.1 0.00 0.00 0.00 1 1013.8
20260903061304 82 313 2.6 6.1 0.00 0.00 0.00 1 1013.8
20260903061204 82 315 2.6 6.1 0.00 0.00 0.00 1 1013.9
20260903061104 82 319 2.6 6.1 0.00 0.00 0.00 1 1013.9
20260903061004 82 327 2.6 6.1 0.00 0.00 0.00 1 1013.9
20260903060904 82 328 2.6 6.1 0.00 0.00 0.00 1 1013.8
20260903060804 82 330 2.6 6.1 0.00 0.00 0.00 1 1013.8
20260903060704 82 330 2.6 6.1 0.00 0.00 0.00 1 1013.8
20260903060604 82 337 2.6 6.1 0.00 0.00 0.00 1 1013.8
20260903060504 82 342 2.6 6.1 0.00 0.00 0.00 1 1013.9
20260903060425 82 343 2.6 6.1 0.00 0.00 0.00 1 1013.9
20260903060325 82 341 2.6 6.1 0.00 0.00 0.00 1 1013.9
20260903060204 82 341 2.6 8.7 0.00 0.00 0.00 1 1013.9
20260903060104 82 341 2.6 8.7 0.00 0.00 0.00 1 1013.9
20260903060004 82 336 2.6 8.7 0.00 0.00 0.00 1 1013.9
20260903055925 82 333 2.6 8.7 0.00 0.00 0.00 1 1013.9
20260903055825 82 332 2.6 8.7 0.00 0.00 0.00 1 1013.9
20260903055704 82 333 2.6 8.7 0.00 0.00 0.00 1 1013.9
20260903055604 82 333 3.5 8.7 0.00 0.00 0.00 1 1013.9
20260903055504 82 333 3.5 8.7 0.00 0.00 0.00 1 1013.9
20260903055404 82 333 3.5 8.7 0.00 0.00 0.00 1 1013.9
20260903055306 82 337 3.5 8.7 0.00 0.00 0.00 1 1013.9
20260903055204 82 342 3.5 7.8 0.00 0.00 0.00 1 1013.9
20260903055104 82 346 3.5 7.8 0.00 0.00 0.00 1 1013.8
20260903055004 82 346 3.5 7.8 0.00 0.00 0.00 1 1013.8
20260903054904 82 344 3.5 7.8 0.00 0.00 0.00 1 1013.8
20260903054804 82 341 3.5 7.8 0.00 0.00 0.00 1 1013.8
20260903054704 82 345 3.5 7.8 0.00 0.00 0.00 1 1013.8
20260903054625 82 348 3.5 7.8 0.00 0.00 0.00 1 1013.9
20260903054525 82 345 3.5 7.8 0.00 0.00 0.00 1 1013.8
20260903054404 82 342 3.5 7.8 0.00 0.00 0.00 1 1013.8
20260903054304 82 339 4.3 12.2 0.00 0.00 0.00 1 1013.8
20260903054204 82 332 4.3 12.2 0.00 0.00 0.00 1 1013.8
20260903054104 82 326 4.3 12.2 0.00 0.00 0.00 1 1013.8
20260903054004 82 333 4.3 12.2 0.00 0.00 0.00 1 1013.8
20260903053904 82 341 4.3 12.2 0.00 0.00 0.00 1 1013.8
20260903053804 82 349 5.2 12.2 0.00 0.00 0.00 1 1013.7
20260903053704 82 347 5.2 12.2 0.00 0.00 0.00 1 1013.8
20260903053604 82 346 5.2 12.2 0.00 0.00 0.00 1 1013.8
20260903053504 82 347 5.2 12.2 0.00 0.00 0.00 1 1013.8
20260903053404 82 353 5.2 12.2 0.00 0.00 0.00 1 1013.8
20260903053304 82 356 4.3 11.3 0.00 0.00 0.00 1 1013.7
20260903053225 82 357 4.3 11.3 0.00 0.00 0.00 1 1013.7
20260903053104 82 359 4.3 11.3 0.00 0.00 0.00 1 1013.7
20260903053004 82 357 3.5 11.3 0.00 0.00 0.00 1 1013.7
20260903052904 82 349 3.5 11.3 0.00 0.00 0.00 1 1013.7
20260903052825 82 345 3.5 11.3 0.00 0.00 0.00 1 1013.7
20260903052725 82 347 3.5 11.3 0.00 0.00 0.00 1 1013.7
20260903052604 82 346 3.5 8.7 0.00 0.00 0.00 1 1013.7
20260903052504 82 342 3.5 8.7 0.00 0.00 0.00 1 1013.6
20260903052404 82 338 3.5 8.7 0.00 0.00 0.00 1 1013.7
20260903052307 82 334 3.5 8.7 0.00 0.00 0.00 1 1013.7
20260903052204 82 331 3.5 8.7 0.00 0.00 0.00 1 1013.7
20260903052104 82 332 3.5 8.7 0.00 0.00 0.00 1 1013.7
20260903052004 82 331 3.5 8.7 0.00 0.00 0.00 1 1013.7
20260903051925 82 332 3.5 8.7 0.00 0.00 0.00 1 1013.7
20260903051825 82 336 2.6 8.7 0.00 0.00 0.00 1 1013.7
20260903051704 82 328 2.6 6.1 0.00 0.00 0.00 1 1013.7
20260903051604 82 330 2.6 6.1 0.00 0.00 0.00 1 1013.6
20260903051525 82 329 2.6 6.1 0.00 0.00 0.00 1 1013.8
20260903051425 82 322 2.6 6.1 0.00 0.00 0.00 1 1013.7
20260903051304 82 318 3.5 6.1 0.00 0.00 0.00 1 1013.8
20260903051204 82 320 2.6 6.1 0.00 0.00 0.00 1 1013.8
20260903051104 82 318 2.6 6.1 0.00 0.00 0.00 1 1013.8
20260903051025 82 317 2.6 6.1 0.00 0.00 0.00 1 1013.8
20260903050904 82 315 2.6 6.1 0.00 0.00 0.00 1 1013.8
20260903050804 82 314 2.6 6.1 0.00 0.00 0.00 1 1013.7
20260903050704 82 313 2.6 6.1 0.00 0.00 0.00 1 1013.8
20260903050604 82 310 2.6 6.1 0.00 0.00 0.00 1 1013.8
20260903050504 82 313 2.6 6.1 0.00 0.00 0.00 1 1013.8
20260903050425 82 315 2.6 7.0 0.00 0.00 0.00 1 1013.8
20260903050304 82 319 2.6 7.0 0.00 0.00 0.00 1 1013.8
20260903050204 82 321 2.6 7.0 0.00 0.00 0.00 1 1013.7
20260903050104 82 319 3.5 7.0 0.00 0.00 0.00 1 1013.7
20260903050004 82 320 3.5 7.0 0.00 0.00 0.00 1 1013.7
20260903045904 82 325 3.5 7.0 0.00 0.00 0.00 1 1013.7
20260903045825 82 329 3.5 7.0 0.00 0.00 0.00 1 1013.7
20260903045704 82 334 3.5 7.0 0.00 0.00 0.00 1 1013.6
20260903045604 82 332 3.5 7.0 0.00 0.00 0.00 1 1013.7
20260903045504 82 329 3.5 7.0 0.00 0.00 0.00 1 1013.6
20260903045404 82 327 3.5 7.0 0.00 0.00 0.00 1 1013.7
20260903045306 82 332 3.5 7.8 0.00 0.00 0.00 1 1013.8
20260903045204 82 331 3.5 7.8 0.00 0.00 0.00 1 1013.7
20260903045125 81 334 3.5 7.8 0.00 0.00 0.00 1 1013.7
20260903045004 81 340 3.5 9.6 0.00 0.00 0.00 1 1013.7
20260903044904 81 336 3.5 9.6 0.00 0.00 0.00 1 1013.6
20260903044804 81 332 3.5 9.6 0.00 0.00 0.00 1 1013.7
20260903044704 81 329 3.5 9.6 0.00 0.00 0.00 1 1013.7
20260903044604 81 329 3.5 9.6 0.00 0.00 0.00 1 1013.6
20260903044504 81 330 3.5 9.6 0.00 0.00 0.00 1 1013.6
20260903044404 81 329 3.5 9.6 0.00 0.00 0.00 1 1013.6
20260903044304 81 322 2.6 9.6 0.00 0.00 0.00 1 1013.6
20260903044204 81 316 2.6 9.6 0.00 0.00 0.00 1 1013.6
20260903044104 81 300 2.6 8.7 0.00 0.00 0.00 1 1013.6
20260903044025 81 294 2.6 7.0 0.00 0.00 0.00 1 1013.6
20260903043925 81 284 2.6 7.0 0.00 0.00 0.00 1 1013.6
20260903043804 81 275 2.6 7.0 0.00 0.00 0.00 1 1013.6
20260903043704 81 269 2.6 7.0 0.00 0.00 0.00 1 1013.6
20260903043604 81 261 1.7 5.2 0.00 0.00 0.00 1 1013.6
20260903043504 81 260 1.7 5.2 0.00 0.00 0.00 1 1013.6
20260903043404 81 258 1.7 5.2 0.00 0.00 0.00 1 1013.6
20260903043304 81 255 1.7 5.2 0.00 0.00 0.00 1 1013.6
20260903043204 81 253 1.7 5.2 0.00 0.00 0.00 1 1013.5
20260903043104 81 249 1.7 5.2 0.00 0.00 0.00 1 1013.5
20260903043004 81 248 1.7 3.5 0.00 0.00 0.00 1 1013.5
20260903042904 81 248 1.7 3.5 0.00 0.00 0.00 1 1013.6
20260903042804 81 248 1.7 3.5 0.00 0.00 0.00 1 1013.5
20260903042704 81 248 1.7 3.5 0.00 0.00 0.00 1 1013.5
20260903042625 81 248 1.7 3.5 0.00 0.00 0.00 1 1013.5
20260903042504 81 248 1.7 3.5 0.00 0.00 0.00 1 1013.5
20260903042404 81 248 1.7 3.5 0.00 0.00 0.00 1 1013.5
20260903042306 81 248 1.7 3.5 0.00 0.00 0.00 1 1013.5
20260903042204 81 248 1.7 3.5 0.00 0.00 0.00 1 1013.6
20260903042104 81 248 1.7 3.5 0.00 0.00 0.00 1 1013.6
20260903042025 81 248 1.7 3.5 0.00 0.00 0.00 1 1013.6
20260903041904 81 248 0.9 2.6 0.00 0.00 0.00 1 1013.6
20260903041804 81 248 0.9 2.6 0.00 0.00 0.00 1 1013.7
20260903041725 81 248 0.9 2.6 0.00 0.00 0.00 1 1013.6
20260903041604 81 248 0.9 2.6 0.00 0.00 0.00 1 1013.7
20260903041504 81 248 0.9 2.6 0.00 0.00 0.00 1 1013.7
20260903041404 81 248 0.9 2.6 0.00 0.00 0.00 1 1013.7
20260903041304 81 248 0.9 2.6 0.00 0.00 0.00 1 1013.7
20260903041204 81 248 1.7 4.3 0.00 0.00 0.00 1 1013.7
20260903041104 81 248 1.7 4.3 0.00 0.00 0.00 1 1013.7
20260903041025 81 248 1.7 4.3 0.00 0.00 0.00 1 1013.6
20260903040925 81 248 1.7 4.3 0.00 0.00 0.00 1 1013.6
20260903040804 81 248 1.7 4.3 0.00 0.00 0.00 1 1013.7
20260903040704 81 248 1.7 4.3 0.00 0.00 0.00 1 1013.6
20260903040604 81 248 1.7 4.3 0.00 0.00 0.00 1 1013.6
20260903040504 81 248 1.7 4.3 0.00 0.00 0.00 1 1013.5
20260903040404 81 248 1.7 4.3 0.00 0.00 0.00 1 1013.6
20260903040304 81 248 1.7 4.3 0.00 0.00 0.00 1 1013.6
20260903040204 81 248 1.7 4.3 0.00 0.00 0.00 1 1013.6
20260903040104 81 248 1.7 3.5 0.00 0.00 0.00 1 1013.6
20260903040004 81 248 1.7 4.3 0.00 0.00 0.00 1 1013.5
20260903035904 81 247 1.7 4.3 0.00 0.00 0.00 1 1013.6
20260903035825 81 246 1.7 6.1 0.00 0.00 0.00 1 1013.6
20260903035725 81 247 1.7 6.1 0.00 0.00 0.00 1 1013.6
20260903035604 81 248 1.7 6.1 0.00 0.00 0.00 1 1013.6
20260903035504 81 249 2.6 6.1 0.00 0.00 0.00 1 1013.6
20260903035404 81 251 2.6 6.1 0.00 0.00 0.00 1 1013.5
20260903035306 81 252 2.6 6.1 0.00 0.00 0.00 1 1013.6
20260903035204 81 253 2.6 6.1 0.00 0.00 0.00 1 1013.6
20260903035125 81 254 2.6 6.1 0.00 0.00 0.00 1 1013.6
20260903035004 81 255 2.6 6.1 0.00 0.00 0.00 1 1013.6
20260903034904 81 255 2.6 6.1 0.00 0.00 0.00 1 1013.6
20260903034804 81 257 2.6 5.2 0.00 0.00 0.00 1 1013.6
20260903034725 81 256 2.6 5.2 0.00 0.00 0.00 1 1013.6
20260903034625 81 256 2.6 5.2 0.00 0.00 0.00 1 1013.6
20260903034504 81 255 2.6 5.2 0.00 0.00 0.00 1 1013.6
20260903034404 82 254 2.6 5.2 0.00 0.00 0.00 1 1013.7
20260903034304 82 256 1.7 5.2 0.00 0.00 0.00 1 1013.7
20260903034225 82 258 1.7 5.2 0.00 0.00 0.00 1 1013.7
20260903034104 82 262 1.7 5.2 0.00 0.00 0.00 1 1013.7
20260903034004 82 267 2.6 5.2 0.00 0.00 0.00 1 1013.7
20260903033925 82 266 2.6 8.7 0.00 0.00 0.00 1 1013.7
20260903033804 82 266 2.6 8.7 0.00 0.00 0.00 1 1013.6
20260903033704 82 267 2.6 8.7 0.00 0.00 0.00 1 1013.7
20260903033604 82 270 2.6 8.7 0.00 0.00 0.00 1 1013.6
20260903033504 82 270 3.5 8.7 0.00 0.00 0.00 1 1013.7
20260903033404 82 272 3.5 8.7 0.00 0.00 0.00 1 1013.7
20260903033304 82 273 3.5 8.7 0.00 0.00 0.00 1 1013.7
20260903033204 82 270 3.5 8.7 0.00 0.00 0.00 1 1013.7
20260903033104 82 267 4.3 8.7 0.00 0.00 0.00 1 1013.7
20260903033004 82 265 3.5 8.7 0.00 0.00 0.00 1 1013.8
20260903032904 82 266 3.5 9.6 0.00 0.00 0.00 1 1013.8
20260903032804 82 267 3.5 9.6 0.00 0.00 0.00 1 1013.8
20260903032725 82 267 3.5 9.6 0.00 0.00 0.00 1 1013.8
20260903032604 82 263 4.3 9.6 0.00 0.00 0.00 1 1013.8
20260903032504 83 263 4.3 9.6 0.00 0.00 0.00 1 1013.8
20260903032404 83 262 4.3 9.6 0.00 0.00 0.00 1 1013.9
20260903032325 83 260 4.3 9.6 0.00 0.00 0.00 1 1013.9
20260903032204 83 258 4.3 9.6 0.00 0.00 0.00 1 1013.8
20260903032104 83 261 4.3 9.6 0.00 0.00 0.00 1 1013.9
20260903032004 83 263 4.3 9.6 0.00 0.00 0.00 1 1013.8
20260903031904 83 264 5.2 12.2 0.00 0.00 0.00 1 1013.8
20260903031804 83 263 5.2 12.2 0.00 0.00 0.00 1 1013.9
20260903031704 83 265 5.2 12.2 0.00 0.00 0.00 1 1013.9
20260903031604 84 265 5.2 12.2 0.00 0.00 0.00 1 1013.9
20260903031504 84 266 4.3 12.2 0.00 0.00 0.00 1 1013.9
20260903031404 84 267 5.2 12.2 0.00 0.00 0.00 1 1013.9
20260903031304 84 267 5.2 12.2 0.00 0.00 0.00 1 1013.8
20260903031225 84 268 5.2 12.2 0.00 0.00 0.00 1 1013.8
20260903031125 84 266 4.3 12.2 0.00 0.00 0.00 22 1013.8
20260903031004 84 262 4.3 12.2 0.00 0.00 0.00 22 1013.7
20260903030904 85 258 4.3 12.2 0.00 0.00 0.00 22 1013.6
20260903030804 85 259 3.5 10.4 0.00 0.00 0.00 26 1013.6
20260903030704 85 260 3.5 10.4 0.00 0.00 0.00 30 1013.6
20260903030604 85 261 3.5 10.4 0.00 0.00 0.00 31 1013.5
20260903030504 85 262 3.5 10.4 0.00 0.00 0.00 34 1013.5
20260903030425 85 260 3.5 10.4 0.00 0.00 0.00 34 1013.6
20260903030325 85 259 3.5 10.4 0.00 0.00 0.00 35 1013.5
20260903030225 86 258 3.5 10.4 0.00 0.00 0.00 36 1013.4
20260903030104 86 259 3.5 10.4 0.00 0.00 0.00 37 1013.4
20260903030004 86 260 3.5 10.4 0.00 0.00 0.00 37 1013.3
20260903025904 86 261 2.6 6.1 0.00 0.00 0.00 38 1013.3
20260903025804 86 259 2.6 6.1 0.00 0.00 0.00 38 1013.3
20260903025704 86 255 2.6 5.2 0.00 0.00 0.00 38 1013.2
20260903025604 86 252 2.6 5.2 0.00 0.00 0.00 39 1013.2
20260903025525 86 250 2.6 5.2 0.00 0.00 0.00 39 1013.1
20260903025404 86 248 1.7 5.2 0.00 0.00 0.00 39 1013.0
20260903025325 86 248 1.7 5.2 0.00 0.00 0.00 39 1013.1
20260903025204 86 247 1.7 4.3 0.00 0.00 0.00 40 1013.0
20260903025104 86 247 1.7 4.3 0.00 0.00 0.00 40 1013.0
20260903025004 86 247 1.7 3.5 0.00 0.00 0.00 40 1013.0
20260903024925 86 248 1.7 5.2 0.00 0.00 0.00 40 1012.9
20260903024804 86 249 1.7 5.2 0.00 0.00 0.00 40 1012.8
20260903024704 86 250 1.7 5.2 0.00 0.00 0.00 41 1012.8
20260903024604 86 251 1.7 5.2 0.00 0.00 0.00 41 1012.7
20260903024525 86 251 1.7 5.2 0.00 0.00 0.00 41 1012.7
20260903024404 86 251 1.7 5.2 0.00 0.00 0.00 41 1012.8
20260903024304 86 252 2.6 5.2 0.00 0.00 0.00 41 1012.8
20260903024204 86 257 2.6 5.2 0.00 0.00 0.00 41 1012.8
20260903024104 87 257 2.6 5.2 0.00 0.00 0.00 41 1012.8
20260903024004 87 257 2.6 5.2 0.00 0.00 0.00 41 1012.7
20260903023925 87 257 2.6 9.6 0.00 0.00 0.00 42 1012.7
20260903023804 87 257 2.6 9.6 0.00 0.00 0.00 42 1012.7
20260903023704 87 257 2.6 9.6 0.00 0.00 0.00 42 1012.7
20260903023606 87 257 2.6 9.6 0.00 0.00 0.00 42 1012.6
20260903023504 87 256 3.5 9.6 0.00 0.00 0.00 42 1012.5
20260903023404 87 256 3.5 9.6 0.00 0.00 0.00 42 1012.5
20260903023304 87 257 3.5 9.6 0.00 0.00 0.00 42 1012.5
20260903023225 87 258 3.5 9.6 0.00 0.00 0.00 42 1012.6
20260903023104 87 260 3.5 9.6 0.00 0.00 0.00 42 1012.6
20260903023004 87 262 2.6 9.6 0.00 0.00 0.00 42 1012.7
20260903022904 87 271 2.6 8.7 0.00 0.00 0.00 42 1012.8
20260903022804 87 273 2.6 6.1 0.00 0.00 0.00 42 1012.8
20260903022704 87 270 2.6 6.1 0.00 0.00 0.00 42 1012.6
20260903022604 88 266 2.6 7.0 0.00 0.00 0.00 42 1012.5
20260903022504 88 259 2.6 7.0 0.00 0.00 0.00 42 1012.5
20260903022404 88 256 2.6 7.0 0.00 0.00 0.00 42 1012.4
20260903022325 88 254 2.6 7.0 0.00 0.00 0.00 42 1012.3
20260903022225 87 248 2.6 7.0 0.00 0.00 0.00 42 1012.3
20260903022104 87 241 2.6 7.0 0.00 0.00 0.00 42 1012.2
20260903022004 87 239 1.7 7.0 0.00 0.00 0.00 42 1012.2
20260903021925 87 233 1.7 7.0 0.00 0.00 0.00 43 1012.3
20260903021825 87 226 1.7 7.0 0.00 0.00 0.00 43 1012.3
20260903021725 87 225 0.9 7.0 0.00 0.00 0.00 43 1012.3
20260903021625 87 223 0.9 5.2 0.00 0.00 0.00 42 1012.3
20260903021504 87 239 0.0 4.3 0.00 0.00 0.00 43 1012.4
20260903021404 87 241 0.0 2.6 0.00 0.00 0.00 43 1012.2
20260903021304 87 242 0.0 0.9 0.00 0.00 0.00 43 1012.1
20260903021204 87 242 0.0 0.9 0.00 0.00 0.00 43 1012.0
20260903021104 88 242 0.0 0.9 0.00 0.00 0.00 43 1011.9
20260903021025 88 242 0.0 0.9 0.00 0.00 0.00 43 1011.9
20260903020904 88 242 0.0 0.9 0.00 0.00 0.00 43 1011.8
20260903020804 88 242 0.0 0.9 0.00 0.00 0.00 43 1011.7
20260903020704 88 242 0.0 0.9 0.00 0.00 0.00 43 1011.8
20260903020604 88 242 0.0 0.9 0.00 0.00 0.00 43 1011.8
20260903020504 88 242 0.0 0.9 0.00 0.00 0.00 43 1011.7
20260903020404 88 242 0.0 0.9 0.00 0.00 0.00 43 1011.7
20260903020325 88 242 0.0 0.9 0.00 0.00 0.00 43 1011.7
20260903020204 88 242 0.0 0.9 0.00 0.00 0.00 43 1011.7
20260903020104 88 242 0.0 0.9 0.00 0.00 0.00 43 1011.6
20260903020004 88 242 0.0 0.9 0.00 0.00 0.00 43 1011.7
20260903015904 88 242 0.0 0.9 0.00 0.00 0.00 43 1011.6
20260903015804 88 242 0.0 0.9 0.00 0.00 0.00 43 1011.6
20260903015704 88 242 0.0 0.9 0.00 0.00 0.00 43 1011.6
20260903015604 88 242 0.0 0.9 0.00 0.00 0.00 43 1011.6
20260903015504 88 242 0.0 0.9 0.00 0.00 0.00 43 1011.5
20260903015404 88 242 0.0 0.9 0.00 0.00 0.00 43 1011.5
20260903015325 88 242 0.0 0.9 0.00 0.00 0.00 43 1011.5
20260903015204 88 242 0.0 0.9 0.00 0.00 0.00 43 1011.5
20260903015104 88 242 0.0 0.9 0.00 0.00 0.00 43 1011.4
20260903015025 88 242 0.0 0.9 0.00 0.00 0.00 43 1011.5
20260903014904 88 242 0.0 0.9 0.00 0.00 0.00 43 1011.5
20260903014804 88 242 0.0 0.9 0.00 0.00 0.00 43 1011.5
20260903014704 88 242 0.0 0.9 0.00 0.00 0.00 43 1011.4
20260903014604 88 242 0.0 1.7 0.00 0.00 0.00 43 1011.4
20260903014504 88 242 0.0 2.6 0.00 0.00 0.00 43 1011.4
20260903014404 88 242 0.9 2.6 0.00 0.00 0.00 43 1011.4
20260903014304 88 242 0.9 2.6 0.00 0.00 0.00 43 1011.5
20260903014204 88 242 0.9 2.6 0.00 0.00 0.00 43 1011.4
20260903014104 88 242 0.9 2.6 0.00 0.00 0.00 43 1011.4
20260903014004 88 242 0.9 2.6 0.00 0.00 0.00 43 1011.4
20260903013904 88 242 0.9 2.6 0.00 0.00 0.00 43 1011.4
20260903013804 88 242 0.9 3.5 0.00 0.00 0.00 43 1011.4
20260903013704 88 242 0.9 3.5 0.00 0.00 0.00 43 1011.3
20260903013604 88 243 0.9 3.5 0.00 0.00 0.00 44 1011.3
20260903013504 88 243 0.9 3.5 0.00 0.00 0.00 44 1011.3
20260903013404 88 243 0.9 3.5 0.00 0.00 0.00 44 1011.3
20260903013304 88 243 0.9 3.5 0.00 0.00 0.00 44 1011.3
20260903013204 88 243 1.7 3.5 0.00 0.00 0.00 44 1011.3
20260903013104 88 243 1.7 3.5 0.00 0.00 0.00 44 1011.4
20260903013004 88 243 1.7 3.5 0.00 0.00 0.00 44 1011.3
20260903012904 88 244 1.7 3.5 0.00 0.00 0.00 44 1011.4
20260903012825 88 244 1.7 3.5 0.00 0.00 0.00 44 1011.4
20260903012704 88 244 1.7 3.5 0.00 0.00 0.00 44 1011.4
20260903012604 88 244 1.7 3.5 0.00 0.00 0.00 44 1011.4
20260903012525 88 244 1.7 3.5 0.00 0.00 0.00 44 1011.4
20260903012404 88 244 1.7 4.3 0.00 0.00 0.00 44 1011.4
20260903012306 88 245 1.7 4.3 0.00 0.00 0.00 44 1011.4
20260903012204 89 245 1.7 4.3 0.00 0.00 0.00 44 1011.4
20260903012104 89 245 1.7 5.2 0.00 0.00 0.00 44 1011.4
20260903012025 89 245 1.7 5.2 0.00 0.00 0.00 44 1011.4
20260903011904 89 245 1.7 5.2 0.00 0.00 0.00 44 1011.5
20260903011804 89 245 1.7 5.2 0.00 0.00 0.00 44 1011.5
20260903011704 89 245 1.7 5.2 0.00 0.00 0.00 44 1011.4
20260903011604 89 245 1.7 5.2 0.00 0.00 0.00 44 1011.5
20260903011525 89 245 1.7 5.2 0.00 0.00 0.00 44 1011.4
20260903011404 89 245 1.7 5.2 0.00 0.00 0.00 44 1011.4
20260903011325 89 245 2.6 5.2 0.00 0.00 0.00 44 1011.4
20260903011204 89 245 1.7 5.2 0.00 0.00 0.00 44 1011.5
20260903011104 89 245 1.7 4.3 0.00 0.00 0.00 44 1011.5
20260903011004 89 246 1.7 4.3 0.00 0.00 0.00 44 1011.5
20260903010904 89 246 1.7 4.3 0.00 0.00 0.00 44 1011.5
20260903010804 89 246 1.7 4.3 0.00 0.00 0.00 44 1011.5
20260903010704 89 247 1.7 4.3 0.00 0.00 0.00 44 1011.5
20260903010625 89 247 1.7 4.3 0.00 0.00 0.00 44 1011.5
20260903010504 89 248 1.7 4.3 0.00 0.00 0.00 44 1011.4
20260903010404 90 248 1.7 4.3 0.00 0.00 0.00 44 1011.5
20260903010304 90 249 1.7 4.3 0.00 0.00 0.00 44 1011.5
20260903010225 90 249 1.7 3.5 0.00 0.00 0.00 44 1011.5
20260903010104 90 250 1.7 5.2 0.00 0.00 0.00 43 1011.5
20260903010004 90 250 1.7 5.2 0.00 0.00 0.00 43 1011.5
20260903005904 90 251 2.6 5.2 0.00 0.00 0.00 43 1011.5
20260903005804 90 251 1.7 5.2 0.00 0.00 0.00 43 1011.6
20260903005704 90 252 1.7 5.2 0.00 0.00 0.00 43 1011.6
20260903005604 90 252 1.7 5.2 0.00 0.00 0.00 43 1011.6
20260903005504 90 252 1.7 5.2 0.00 0.00 0.00 43 1011.6
20260903005404 90 252 2.6 5.2 0.00 0.00 0.00 43 1011.6
20260903005306 90 252 2.6 6.1 0.00 0.00 0.00 43 1011.5
20260903005225 90 252 2.6 6.1 0.00 0.00 0.00 43 1011.6
20260903005104 90 252 2.6 6.1 0.00 0.00 0.00 43 1011.5
20260903005004 90 252 2.6 6.1 0.00 0.00 0.00 43 1011.5
20260903004925 90 251 2.6 6.1 0.00 0.00 0.00 43 1011.6
20260903004804 90 253 2.6 6.1 0.00 0.00 0.00 43 1011.5
20260903004704 90 252 2.6 6.1 0.00 0.00 0.00 43 1011.6
20260903004625 91 251 2.6 6.1 0.00 0.00 0.00 43 1011.6
20260903004525 91 250 2.6 6.1 0.00 0.00 0.00 43 1011.6
20260903004404 91 252 2.6 6.1 0.00 0.00 0.00 43 1011.6
20260903004304 91 254 2.6 5.2 0.00 0.00 0.00 42 1011.6
20260903004204 91 255 2.6 5.2 0.00 0.00 0.00 42 1011.6
20260903004104 91 259 2.6 6.1 0.00 0.00 0.00 42 1011.6
20260903004004 91 261 2.6 6.1 0.00 0.00 0.00 42 1011.6
20260903003904 91 262 2.6 6.1 0.00 0.00 0.00 42 1011.6
20260903003804 91 269 2.6 6.1 0.00 0.00 0.00 42 1011.6
20260903003704 91 276 2.6 6.1 0.00 0.00 0.00 42 1011.5
20260903003604 91 285 2.6 6.1 0.00 0.00 0.00 42 1011.5
20260903003504 91 292 2.6 6.1 0.00 0.00 0.00 42 1011.6
20260903003404 91 300 2.6 6.1 0.00 0.00 0.00 42 1011.5
20260903003304 91 305 2.6 6.1 0.00 0.00 0.00 42 1011.6
20260903003204 91 307 2.6 6.1 0.00 0.00 0.00 42 1011.5
20260903003104 91 309 2.6 6.1 0.00 0.00 0.00 42 1011.5
20260903003004 91 321 2.6 6.1 0.00 0.00 0.00 42 1011.5
20260903002904 91 332 2.6 6.1 0.00 0.00 0.00 42 1011.5
20260903002804 91 342 2.6 6.1 0.00 0.00 0.00 42 1011.5
20260903002704 91 348 2.6 6.1 0.00 0.00 0.00 42 1011.5
20260903002604 91 358 2.6 5.2 0.00 0.00 0.00 42 1011.5
20260903002504 91 9 2.6 7.0 0.00 0.00 0.00 42 1011.6
20260903002404 91 19 2.6 8.7 0.00 0.00 0.00 42 1011.5
20260903002306 91 25 3.5 8.7 0.00 0.00 0.00 42 1011.6
20260903002225 91 29 3.5 8.7 0.00 0.00 0.00 42 1011.5
20260903002125 91 34 2.6 8.7 0.00 0.00 0.00 42 1011.6
20260903002004 91 40 2.6 8.7 0.00 0.00 0.00 42 1011.6
20260903001904 91 43 2.6 8.7 0.00 0.00 0.00 42 1011.6
20260903001804 91 47 2.6 8.7 0.00 0.00 0.00 42 1011.6
20260903001725 91 48 2.6 8.7 0.00 0.00 0.00 42 1011.6
20260903001604 91 49 2.6 8.7 0.00 0.00 0.00 42 1011.6
20260903001504 91 53 2.6 8.7 0.00 0.00 0.00 42 1011.6
20260903001404 91 57 2.6 4.3 0.00 0.00 0.00 42 1011.6
20260903001304 91 58 2.6 4.3 0.00 0.00 0.00 42 1011.7
20260903001204 91 59 2.6 4.3 0.00 0.00 0.00 42 1011.6
20260903001104 91 58 2.6 4.3 0.00 0.00 0.00 43 1011.6
20260903001004 90 58 2.6 4.3 0.00 0.00 0.00 43 1011.6
20260903000904 90 57 2.6 4.3 0.00 0.00 0.00 43 1011.7
20260903000804 90 53 2.6 5.2 0.00 0.00 0.00 44 1011.6
20260903000704 90 51 2.6 6.1 0.00 0.00 0.00 44 1011.7
20260903000604 90 49 2.6 6.1 0.00 0.00 0.00 45 1011.7
20260903000525 91 48 3.5 6.1 0.00 0.00 0.00 45 1011.7
20260903000404 91 46 3.5 7.0 0.00 0.00 0.00 45 1011.7
20260903000304 90 46 3.5 7.0 0.00 0.00 0.00 45 1011.7
20260903000204 90 46 4.3 9.6 0.00 0.00 0.00 46 1011.7
20260903000104 90 48 4.3 9.6 0.00 0.00 0.00 46 1011.7
20260903000004 90 49 4.3 9.6 0.00 0.00 0.00 46 1011.7
20260902235904 90 50 4.3 9.6 0.00 0.00 0.00 46 1011.7
20260902235804 90 53 5.2 9.6 0.00 0.00 0.00 46 1011.7
20260902235704 90 55 5.2 9.6 0.00 0.00 0.00 47 1011.6
20260902235604 90 55 5.2 9.6 0.00 0.00 0.00 47 1011.7
20260902235504 90 56 5.2 9.6 0.00 0.00 0.00 47 1011.7
20260902235404 90 57 5.2 9.6 0.00 0.00 0.00 47 1011.7
20260902235305 90 59 5.2 9.6 0.00 0.00 0.00 47 1011.8
20260902235225 90 59 4.3 9.6 0.00 0.00 0.00 47 1011.8
20260902235125 90 59 4.3 8.7 0.00 0.00 0.00 47 1011.8
20260902235004 90 61 4.3 8.7 0.00 0.00 0.00 48 1011.8
20260902234904 90 63 4.3 11.3 0.00 0.00 0.00 48 1011.8
20260902234804 90 63 4.3 11.3 0.00 0.00 0.00 48 1011.7
20260902234704 90 66 4.3 11.3 0.00 0.00 0.00 48 1011.7
20260902234604 90 70 4.3 11.3 0.00 0.00 0.00 48 1011.8
20260902234504 90 73 4.3 11.3 0.00 0.00 0.00 48 1011.8
20260902234425 91 75 4.3 11.3 0.00 0.00 0.00 48 1011.8
20260902234304 91 76 4.3 11.3 0.00 0.00 0.00 48 1011.8
20260902234225 91 77 5.2 11.3 0.00 0.00 0.00 48 1011.8
20260902234104 91 76 5.2 11.3 0.00 0.00 0.00 47 1011.9
20260902234004 91 73 5.2 11.3 0.00 0.00 0.00 48 1012.0
20260902233904 91 71 5.2 10.4 0.00 0.00 0.00 48 1011.9
20260902233825 92 71 4.3 10.4 0.00 0.00 0.00 48 1011.9
20260902233704 92 70 4.3 9.6 0.00 0.00 0.00 46 1011.9
20260902233604 93 69 3.5 9.6 0.00 0.00 0.00 46 1011.9
20260902233525 93 68 3.5 8.7 0.00 0.00 0.00 46 1012.0
20260902233404 93 76 3.5 8.7 0.00 0.00 0.00 45 1012.0
20260902233304 94 77 3.5 8.7 0.00 0.00 0.00 45 1012.0
20260902233204 94 77 2.6 8.7 0.00 0.00 0.00 45 1012.0
20260902233104 94 80 1.7 8.7 0.00 0.00 0.00 45 1012.0
20260902233004 94 100 1.7 6.1 0.00 0.00 0.00 44 1012.0
20260902232904 94 130 0.9 5.2 0.00 0.00 0.00 44 1012.0
20260902232804 94 158 0.9 5.2 0.00 0.00 0.00 43 1012.1
20260902232704 95 179 1.7 5.2 0.00 0.00 0.00 43 1012.0
20260902232604 95 181 1.7 7.0 0.00 0.00 0.00 43 1012.0
20260902232504 95 186 1.7 7.0 0.00 0.00 0.00 43 1011.9
20260902232404 95 198 1.7 7.0 0.00 0.00 0.00 43 1011.9
20260902232306 95 201 1.7 7.0 0.00 0.00 0.00 43 1011.8
20260902232204 95 209 1.7 7.0 0.00 0.00 0.00 43 1011.7
20260902232104 95 215 2.6 7.0 0.00 0.00 0.00 43 1011.7
20260902232004 95 223 2.6 7.0 0.00 0.00 0.00 43 1011.7
20260902231904 95 227 2.6 7.0 0.00 0.00 0.00 43 1011.6
20260902231804 95 233 2.6 7.0 0.00 0.00 0.00 42 1011.6
20260902231704 96 238 2.6 7.0 0.00 0.00 0.00 42 1011.5
20260902231604 96 246 2.6 7.0 0.00 0.00 0.00 42 1011.6
20260902231525 96 250 2.6 7.0 0.00 0.00 0.00 42 1011.5
20260902231404 96 257 2.6 7.0 0.00 0.00 0.00 42 1011.4
20260902231304 96 261 2.6 7.0 0.00 0.00 0.00 41 1011.4
20260902231204 97 264 2.6 7.0 0.00 0.00 0.00 41 1011.3
20260902231125 97 264 1.7 7.0 0.00 0.00 0.00 41 1011.3
20260902231025 97 265 1.7 7.0 0.00 0.00 0.00 40 1011.3
20260902230904 98 293 1.7 7.0 0.00 0.00 0.00 39 1011.3
20260902230804 98 352 1.7 7.0 0.00 0.00 0.00 39 1011.3
20260902230704 99 34 0.9 7.0 0.00 0.00 0.00 38 1011.2
20260902230625 99 50 0.9 2.6 0.00 0.00 0.00 38 1011.2
20260902230504 99 50 0.9 3.5 0.00 0.00 0.00 38 1011.2
20260902230404 99 50 0.9 3.5 0.00 0.00 0.00 38 1011.1
20260902230306 99 51 0.9 3.5 0.00 0.00 0.00 38 1011.1
20260902230204 99 52 1.7 3.5 0.00 0.00 0.00 38 1011.1
20260902230104 99 53 1.7 4.3 0.00 0.00 0.00 38 1011.1
20260902230004 99 54 1.7 4.3 0.00 0.00 0.00 38 1011.0
20260902225904 99 54 2.6 5.2 0.00 0.00 0.00 38 1011.0
20260902225804 99 53 2.6 6.1 0.00 0.00 0.00 38 1011.1
20260902225704 99 53 2.6 6.1 0.00 0.00 0.00 38 1011.1
20260902225604 99 54 2.6 6.1 0.00 0.00 0.00 38 1011.0
20260902225504 99 54 2.6 6.1 0.00 0.00 0.00 38 1011.1
20260902225404 99 55 2.6 6.1 0.00 0.00 0.00 38 1011.0
20260902225306 99 55 2.6 6.1 0.00 0.00 0.00 38 1011.1
20260902225204 99 54 3.5 6.1 0.00 0.00 0.00 38 1011.1
20260902225104 99 55 2.6 6.1 0.00 0.00 0.00 38 1011.0
20260902225004 99 55 2.6 6.1 0.00 0.00 0.00 38 1011.0
20260902224904 99 56 2.6 6.1 0.00 0.00 0.00 37 1011.0
20260902224804 99 59 2.6 5.2 0.00 0.00 0.00 38 1011.0
20260902224704 99 60 2.6 5.2 0.00 0.00 0.00 37 1011.1
20260902224604 99 60 2.6 5.2 0.00 0.00 0.00 37 1011.0
20260902224504 99 61 2.6 5.2 0.00 0.00 0.00 37 1011.1
20260902224404 99 61 2.6 5.2 0.00 0.00 0.00 37 1011.0
20260902224304 100 64 2.6 5.2 0.00 0.00 0.00 37 1011.1
20260902224204 100 67 2.6 5.2 0.00 0.00 0.00 37 1011.0
20260902224125 100 68 2.6 5.2 0.00 0.00 0.00 37 1011.0
20260902224004 100 69 2.6 5.2 0.00 0.00 0.00 37 1011.0
20260902223904 100 69 1.7 5.2 0.00 0.00 0.00 36 1011.0
20260902223825 100 70 1.7 5.2 0.00 0.00 0.00 37 1011.0
20260902223704 100 74 1.7 5.2 0.00 0.00 0.00 36 1011.0
20260902223604 100 76 1.7 5.2 0.00 0.00 0.00 36 1011.0
20260902223504 101 80 1.7 5.2 0.00 0.00 0.00 36 1011.0
20260902223404 101 87 0.9 5.2 0.00 0.00 0.00 36 1011.0
20260902223325 101 91 0.9 3.5 0.00 0.00 0.00 36 1011.0
20260902223204 101 94 0.9 2.6 0.00 0.00 0.00 36 1011.0
20260902223104 101 97 0.9 2.6 0.00 0.00 0.00 36 1010.9
20260902223004 101 99 0.9 2.6 0.00 0.00 0.00 36 1011.0
20260902222904 101 101 0.9 2.6 0.00 0.00 0.00 35 1010.9
20260902222804 101 109 0.9 2.6 0.00 0.00 0.00 35 1010.9
20260902222725 101 114 0.9 2.6 0.00 0.00 0.00 35 1010.9
20260902222606 101 124 0.9 2.6 0.00 0.00 0.00 36 1011.0
20260902222504 101 133 0.9 2.6 0.00 0.00 0.00 36 1011.0
20260902222404 101 138 0.9 2.6 0.00 0.00 0.00 36 1011.0
20260902222306 100 146 0.9 3.5 0.00 0.00 0.00 36 1011.0
20260902222204 100 147 1.7 3.5 0.00 0.00 0.00 37 1011.0
20260902222104 100 149 1.7 6.1 0.00 0.00 0.00 37 1011.0
20260902222004 100 146 1.7 6.1 0.00 0.00 0.00 37 1011.1
20260902221904 99 142 1.7 6.1 0.00 0.00 0.00 37 1011.1
20260902221804 99 138 1.7 6.1 0.00 0.00 0.00 37 1011.1
20260902221704 99 131 1.7 6.1 0.00 0.00 0.00 37 1011.0
20260902221604 99 124 1.7 6.1 0.00 0.00 0.00 37 1011.0
20260902221504 99 115 2.6 6.1 0.00 0.00 0.00 37 1011.0
20260902221404 99 110 1.7 6.1 0.00 0.00 0.00 37 1011.0
20260902221304 99 104 1.7 6.1 0.00 0.00 0.00 37 1011.1
20260902221204 99 101 1.7 6.1 0.00 0.00 0.00 37 1011.1
20260902221104 100 86 1.7 5.2 0.00 0.00 0.00 37 1011.1
20260902221004 99 80 1.7 4.3 0.00 0.00 0.00 37 1011.1
20260902220904 99 76 1.7 4.3 0.00 0.00 0.00 37 1011.1
20260902220804 100 70 1.7 5.2 0.00 0.00 0.00 37 1011.1
20260902220704 100 64 1.7 5.2 0.00 0.00 0.00 37 1011.1
20260902220604 100 61 1.7 5.2 0.00 0.00 0.00 37 1011.0
20260902220504 100 61 1.7 5.2 0.00 0.00 0.00 37 1011.1
20260902220404 100 61 1.7 5.2 0.00 0.00 0.00 37 1011.1
20260902220325 100 61 1.7 5.2 0.00 0.00 0.00 37 1011.0
20260902220204 100 61 1.7 5.2 0.00 0.00 0.00 37 1011.1
20260902220104 100 60 1.7 5.2 0.00 0.00 0.00 37 1011.1
20260902220004 100 60 1.7 5.2 0.00 0.00 0.00 36 1011.1
20260902215904 100 60 0.9 5.2 0.00 0.00 0.00 37 1011.1
20260902215804 100 59 0.9 4.3 0.00 0.00 0.00 36 1011.1
20260902215704 100 58 0.9 4.3 0.00 0.00 0.00 36 1011.2
20260902215604 100 58 0.0 4.3 0.00 0.00 0.00 35 1011.2
20260902215504 100 57 0.0 1.7 0.00 0.00 0.00 36 1011.1
20260902215404 100 57 0.0 1.7 0.00 0.00 0.00 36 1011.2
20260902215306 100 57 0.0 1.7 0.00 0.00 0.00 36 1011.1
20260902215204 100 57 0.0 1.7 0.00 0.00 0.00 36 1011.2
20260902215104 100 57 0.9 1.7 0.00 0.00 0.00 36 1011.1
20260902215004 100 57 0.9 2.6 0.00 0.00 0.00 36 1011.2
20260902214904 100 57 0.9 2.6 0.00 0.00 0.00 36 1011.2
20260902214804 100 57 0.9 2.6 0.00 0.00 0.00 36 1011.2
20260902214704 100 57 0.9 2.6 0.00 0.00 0.00 36 1011.2
20260902214625 100 59 0.9 2.6 0.00 0.00 0.00 36 1011.2
20260902214504 100 64 1.7 4.3 0.00 0.00 0.00 36 1011.2
20260902214404 100 65 1.7 5.2 0.00 0.00 0.00 37 1011.3
20260902214304 100 67 1.7 5.2 0.00 0.00 0.00 36 1011.3
20260902214204 99 69 1.7 5.2 0.00 0.00 0.00 37 1011.3
20260902214104 99 71 1.7 5.2 0.00 0.00 0.00 37 1011.3
20260902214004 99 79 1.7 5.2 0.00 0.00 0.00 37 1011.3
20260902213904 99 80 1.7 5.2 0.00 0.00 0.00 37 1011.3
20260902213825 99 80 1.7 5.2 0.00 0.00 0.00 37 1011.3
20260902213704 99 80 2.6 5.2 0.00 0.00 0.00 37 1011.3
20260902213604 99 77 2.6 7.0 0.00 0.00 0.00 37 1011.3
20260902213504 99 74 2.6 7.0 0.00 0.00 0.00 37 1011.3
20260902213404 99 72 2.6 7.0 0.00 0.00 0.00 37 1011.3
20260902213304 99 71 2.6 7.0 0.00 0.00 0.00 37 1011.3
20260902213225 99 69 2.6 7.0 0.00 0.00 0.00 37 1011.3
20260902213104 99 68 2.6 7.0 0.00 0.00 0.00 37 1011.3
20260902213025 99 66 2.6 7.0 0.00 0.00 0.00 37 1011.3
20260902212925 100 62 2.6 7.0 0.00 0.00 0.00 37 1011.3
20260902212825 100 62 2.6 7.0 0.00 0.00 0.00 37 1011.4
20260902212704 100 61 1.7 7.0 0.00 0.00 0.00 36 1011.4
20260902212604 100 61 1.7 5.2 0.00 0.00 0.00 36 1011.4
20260902212504 100 64 1.7 5.2 0.00 0.00 0.00 37 1011.4
20260902212425 100 65 1.7 5.2 0.00 0.00 0.00 37 1011.4
20260902212306 100 66 0.9 3.5 0.00 0.00 0.00 36 1011.4
20260902212225 100 66 0.9 3.5 0.00 0.00 0.00 36 1011.4
20260902212104 100 67 0.9 3.5 0.00 0.00 0.00 37 1011.3
20260902212004 100 67 0.9 3.5 0.00 0.00 0.00 37 1011.4
20260902211904 100 67 0.9 3.5 0.00 0.00 0.00 36 1011.4
20260902211825 100 67 0.9 3.5 0.00 0.00 0.00 36 1011.3
20260902211704 100 67 0.9 3.5 0.00 0.00 0.00 36 1011.4
20260902211604 100 67 0.9 2.6 0.00 0.00 0.00 36 1011.4
20260902211504 100 67 0.9 1.7 0.00 0.00 0.00 37 1011.4
20260902211404 99 67 0.0 1.7 0.00 0.00 0.00 37 1011.4
20260902211304 99 68 0.0 1.7 0.00 0.00 0.00 37 1011.4
20260902211204 99 68 0.0 0.9 0.00 0.00 0.00 36 1011.4
20260902211104 99 68 0.0 2.6 0.00 0.00 0.00 37 1011.5
20260902211025 99 68 0.9 2.6 0.00 0.00 0.00 37 1011.4
20260902210925 99 67 0.9 2.6 0.00 0.00 0.00 37 1011.4
20260902210804 99 67 0.9 2.6 0.00 0.00 0.00 37 1011.4
20260902210704 99 67 0.9 2.6 0.00 0.00 0.00 37 1011.4
20260902210604 100 67 0.9 2.6 0.00 0.00 0.00 37 1011.4
20260902210504 100 67 0.9 2.6 0.00 0.00 0.00 37 1011.4
20260902210404 100 67 0.9 2.6 0.00 0.00 0.00 36 1011.4
20260902210304 100 67 0.9 2.6 0.00 0.00 0.00 36 1011.4
20260902210204 100 67 0.9 2.6 0.00 0.00 0.00 36 1011.5
20260902210104 100 66 0.9 1.7 0.00 0.00 0.00 36 1011.5
20260902210004 100 66 0.9 1.7 0.00 0.00 0.00 36 1011.6
20260902205904 100 66 0.9 2.6 0.00 0.00 0.00 36 1011.6
20260902205804 100 66 0.9 2.6 0.00 0.00 0.00 36 1011.6
20260902205704 100 66 0.9 2.6 0.00 0.00 0.00 36 1011.6
20260902205625 100 66 0.9 2.6 0.00 0.00 0.00 36 1011.7
20260902205504 100 66 0.9 2.6 0.00 0.00 0.00 36 1011.6
20260902205404 100 66 0.9 2.6 0.00 0.00 0.00 37 1011.7
20260902205306 100 66 0.9 2.6 0.00 0.00 0.00 36 1011.6
20260902205204 100 66 0.9 2.6 0.00 0.00 0.00 36 1011.7
20260902205104 100 66 0.9 2.6 0.00 0.00 0.00 36 1011.7
20260902205004 100 66 0.9 2.6 0.00 0.00 0.00 36 1011.8
20260902204904 100 66 0.9 2.6 0.00 0.00 0.00 36 1011.8
20260902204804 100 66 0.9 2.6 0.00 0.00 0.00 36 1011.8
20260902204704 100 66 0.9 2.6 0.00 0.00 0.00 36 1011.8
20260902204604 100 66 0.9 2.6 0.00 0.00 0.00 36 1011.8
20260902204504 100 66 0.9 2.6 0.00 0.00 0.00 35 1011.9
20260902204404 100 66 0.9 5.2 0.00 0.00 0.00 35 1011.8
20260902204304 101 59 1.7 6.1 0.00 0.00 0.00 35 1011.8
20260902204204 101 55 1.7 6.1 0.00 0.00 0.00 36 1011.8
20260902204104 101 50 1.7 6.1 0.00 0.00 0.00 35 1011.8
20260902204004 101 52 1.7 6.1 0.00 0.00 0.00 35 1011.9
20260902203904 101 53 1.7 6.1 0.00 0.00 0.00 35 1011.9
20260902203804 101 56 1.7 6.1 0.00 0.00 0.00 35 1011.9
20260902203725 101 59 2.6 6.1 0.00 0.00 0.00 35 1011.9
20260902203604 101 62 2.6 6.1 0.00 0.00 0.00 35 1012.0
20260902203504 101 66 2.6 6.1 0.00 0.00 0.00 35 1012.0
20260902203425 102 68 2.6 6.1 0.00 0.00 0.00 34 1012.0
20260902203304 102 77 1.7 6.1 0.00 0.00 0.00 35 1012.0
20260902203204 102 87 1.7 5.2 0.00 0.00 0.00 35 1011.9
20260902203104 102 100 1.7 4.3 0.00 0.00 0.00 35 1012.0
20260902203004 102 109 0.9 3.5 0.00 0.00 0.00 35 1012.0